Wetterdaten: Samstag, 16.03.2019
Datum Zeit Temp. Aussen Temp. o. S. +5cm Feuchte Auss Luftdruck Regen Sonnenschein Regendauer Solar Windben Empfang
16.03.2019 00:00 8,2 C 7,8 C 6,7 C 95 % 1006,8 hPa 0,0 l/m 0 min 0 min 0 W/m 3,2 km/h (1 Bft) 100,00 %
16.03.2019 00:02 8,2 C 7,8 C 6,7 C 95 % 1007,0 hPa 0,0 l/m 0 min 0 min 0 W/m 3,2 km/h (1 Bft) 100,00 %
16.03.2019 00:04 8,3 C 8,3 C 6,7 C 95 % 1007,0 hPa 0,0 l/m 0 min 0 min 0 W/m 6,4 km/h (2 Bft) 97,87 %
16.03.2019 00:08 8,3 C 8,3 C 6,7 C 95 % 1007,0 hPa 0,0 l/m 0 min 4 min 0 W/m 3,2 km/h (1 Bft) 98,92 %
16.03.2019 00:10 8,3 C 8,3 C 6,7 C 95 % 1007,0 hPa 0,0 l/m 0 min 2 min 0 W/m 3,2 km/h (1 Bft) 100,00 %
16.03.2019 00:12 8,3 C 7,8 C 6,7 C 95 % 1007,0 hPa 0,0 l/m 0 min 2 min 0 W/m 3,2 km/h (1 Bft) 100,00 %
16.03.2019 00:14 8,3 C 7,8 C 6,7 C 95 % 1007,1 hPa 0,0 l/m 0 min 2 min 0 W/m 6,4 km/h (2 Bft) 97,87 %
16.03.2019 00:16 8,4 C 7,8 C 6,7 C 95 % 1007,1 hPa 0,0 l/m 0 min 0 min 0 W/m 0,0 km/h (0 Bft) 97,87 %
16.03.2019 00:18 8,4 C 7,8 C 7,2 C 95 % 1007,1 hPa 0,0 l/m 0 min 0 min 0 W/m 3,2 km/h (1 Bft) 100,00 %
16.03.2019 00:20 8,4 C 7,8 C 7,2 C 95 % 1007,2 hPa 0,0 l/m 0 min 0 min 0 W/m 9,7 km/h (2 Bft) 100,00 %
16.03.2019 00:22 8,5 C 7,8 C 7,2 C 95 % 1007,1 hPa 0,0 l/m 0 min 2 min 0 W/m 6,4 km/h (2 Bft) 100,00 %
16.03.2019 00:24 8,5 C 7,8 C 7,2 C 95 % 1007,1 hPa 0,0 l/m 0 min 2 min 0 W/m 9,7 km/h (2 Bft) 100,00 %
16.03.2019 00:26 8,6 C 7,8 C 7,2 C 95 % 1007,0 hPa 0,0 l/m 0 min 2 min 0 W/m 3,2 km/h (1 Bft) 97,87 %
16.03.2019 00:28 8,6 C 7,8 C 7,2 C 96 % 1007,0 hPa 0,0 l/m 0 min 2 min 0 W/m 6,4 km/h (2 Bft) 100,00 %
16.03.2019 00:30 8,7 C 8,3 C 7,2 C 96 % 1007,0 hPa 0,0 l/m 0 min 2 min 0 W/m 6,4 km/h (2 Bft) 100,00 %
16.03.2019 00:32 8,7 C 8,3 C 7,2 C 96 % 1007,2 hPa 0,0 l/m 0 min 2 min 0 W/m 6,4 km/h (2 Bft) 97,83 %
16.03.2019 00:34 8,8 C 8,3 C 7,2 C 96 % 1007,2 hPa 0,0 l/m 0 min 2 min 0 W/m 6,4 km/h (2 Bft) 97,87 %
16.03.2019 00:36 8,8 C 8,3 C 7,2 C 96 % 1007,2 hPa 0,0 l/m 0 min 2 min 0 W/m 6,4 km/h (2 Bft) 95,74 %
16.03.2019 00:38 8,9 C 8,3 C 7,8 C 96 % 1007,2 hPa 0,0 l/m 0 min 2 min 0 W/m 3,2 km/h (1 Bft) 97,87 %
16.03.2019 00:40 8,9 C 8,3 C 7,8 C 96 % 1007,2 hPa 0,0 l/m 0 min 2 min 0 W/m 3,2 km/h (1 Bft) 97,87 %
16.03.2019 00:42 8,9 C 8,3 C 7,8 C 96 % 1007,3 hPa 0,0 l/m 0 min 2 min 0 W/m 9,7 km/h (2 Bft) 97,83 %
16.03.2019 00:44 9,0 C 8,3 C 7,8 C 96 % 1007,2 hPa 0,0 l/m 0 min 2 min 0 W/m 12,9 km/h (3 Bft) 95,74 %
16.03.2019 00:46 9,1 C 8,3 C 7,8 C 96 % 1007,2 hPa 0,0 l/m 0 min 2 min 0 W/m 9,7 km/h (2 Bft) 95,74 %
16.03.2019 00:48 9,1 C 8,3 C 7,8 C 96 % 1007,2 hPa 0,0 l/m 0 min 2 min 0 W/m 12,9 km/h (3 Bft) 95,74 %
16.03.2019 00:50 9,1 C 8,3 C 7,8 C 96 % 1007,2 hPa 0,0 l/m 0 min 2 min 0 W/m 12,9 km/h (3 Bft) 93,62 %
16.03.2019 00:52 9,1 C 8,3 C 7,2 C 96 % 1007,2 hPa 0,0 l/m 0 min 2 min 0 W/m 9,7 km/h (2 Bft) 95,74 %
16.03.2019 00:54 9,1 C 8,3 C 7,2 C 96 % 1007,3 hPa 0,0 l/m 0 min 2 min 0 W/m 12,9 km/h (3 Bft) 95,74 %
16.03.2019 00:56 9,1 C 8,3 C 7,2 C 96 % 1007,2 hPa 0,0 l/m 0 min 2 min 0 W/m 9,7 km/h (2 Bft) 95,65 %
16.03.2019 00:58 9,1 C 8,3 C 7,2 C 96 % 1007,2 hPa 0,0 l/m 0 min 2 min 0 W/m 16,1 km/h (3 Bft) 95,74 %
16.03.2019 01:00 9,0 C 8,3 C 7,2 C 96 % 1007,3 hPa 0,2 l/m 0 min 2 min 0 W/m 9,7 km/h (2 Bft) 95,74 %
16.03.2019 01:02 9,0 C 8,3 C 7,2 C 96 % 1007,2 hPa 0,0 l/m 0 min 2 min 0 W/m 9,7 km/h (2 Bft) 95,74 %
16.03.2019 01:04 9,0 C 8,3 C 7,2 C 96 % 1007,2 hPa 0,0 l/m 0 min 2 min 0 W/m 16,1 km/h (3 Bft) 95,74 %
16.03.2019 01:06 9,0 C 8,3 C 7,2 C 96 % 1007,4 hPa 0,0 l/m 0 min 2 min 0 W/m 16,1 km/h (3 Bft) 93,48 %
16.03.2019 01:08 9,0 C 8,3 C 7,2 C 96 % 1007,5 hPa 0,0 l/m 0 min 2 min 0 W/m 9,7 km/h (2 Bft) 93,62 %
16.03.2019 01:10 9,0 C 8,3 C 7,2 C 96 % 1007,4 hPa 0,0 l/m 0 min 2 min 0 W/m 9,7 km/h (2 Bft) 95,74 %
16.03.2019 01:12 9,0 C 7,8 C 7,2 C 96 % 1007,5 hPa 0,0 l/m 0 min 2 min 0 W/m 9,7 km/h (2 Bft) 95,74 %
16.03.2019 01:14 9,0 C 7,8 C 7,2 C 96 % 1007,7 hPa 0,0 l/m 0 min 2 min 0 W/m 6,4 km/h (2 Bft) 95,74 %
16.03.2019 01:16 8,9 C 7,8 C 7,2 C 96 % 1007,7 hPa 0,0 l/m 0 min 2 min 0 W/m 16,1 km/h (3 Bft) 95,74 %
16.03.2019 01:18 8,9 C 7,8 C 7,2 C 96 % 1007,7 hPa 0,0 l/m 0 min 2 min 0 W/m 16,1 km/h (3 Bft) 95,65 %
16.03.2019 01:20 8,9 C 7,8 C 7,2 C 96 % 1007,7 hPa 0,0 l/m 0 min 2 min 0 W/m 9,7 km/h (2 Bft) 91,49 %
16.03.2019 01:22 8,9 C 7,8 C 7,2 C 96 % 1007,8 hPa 0,0 l/m 0 min 2 min 0 W/m 6,4 km/h (2 Bft) 95,74 %
16.03.2019 01:24 8,9 C 7,8 C 7,2 C 95 % 1007,9 hPa 0,0 l/m 0 min 2 min 0 W/m 16,1 km/h (3 Bft) 97,87 %
16.03.2019 01:26 8,9 C 7,8 C 7,2 C 95 % 1008,0 hPa 0,0 l/m 0 min 2 min 0 W/m 12,9 km/h (3 Bft) 97,87 %
16.03.2019 01:28 8,9 C 7,8 C 7,2 C 95 % 1008,0 hPa 0,0 l/m 0 min 2 min 0 W/m 9,7 km/h (2 Bft) 97,87 %
16.03.2019 01:30 8,9 C 7,8 C 7,2 C 95 % 1008,0 hPa 0,0 l/m 0 min 2 min 0 W/m 9,7 km/h (2 Bft) 95,65 %
16.03.2019 01:32 8,8 C 7,8 C 7,2 C 95 % 1008,0 hPa 0,0 l/m 0 min 2 min 0 W/m 19,3 km/h (3 Bft) 95,74 %
16.03.2019 01:34 8,8 C 7,8 C 6,7 C 95 % 1007,9 hPa 0,0 l/m 0 min 2 min 0 W/m 25,7 km/h (4 Bft) 97,87 %
16.03.2019 01:36 8,7 C 7,2 C 6,7 C 95 % 1007,9 hPa 0,0 l/m 0 min 2 min 0 W/m 25,7 km/h (4 Bft) 100,00 %
16.03.2019 01:38 8,7 C 7,2 C 6,7 C 95 % 1007,9 hPa 0,0 l/m 0 min 2 min 0 W/m 19,3 km/h (3 Bft) 100,00 %
16.03.2019 01:40 8,6 C 7,2 C 6,7 C 94 % 1007,9 hPa 0,0 l/m 0 min 2 min 0 W/m 16,1 km/h (3 Bft) 100,00 %
16.03.2019 01:42 8,6 C 7,8 C 6,7 C 94 % 1007,9 hPa 0,0 l/m 0 min 2 min 0 W/m 19,3 km/h (3 Bft) 97,83 %
16.03.2019 01:44 8,6 C 7,8 C 6,7 C 94 % 1007,9 hPa 0,0 l/m 0 min 2 min 0 W/m 19,3 km/h (3 Bft) 100,00 %
16.03.2019 01:46 8,5 C 7,8 C 6,7 C 93 % 1007,9 hPa 0,0 l/m 0 min 2 min 0 W/m 9,7 km/h (2 Bft) 97,87 %
16.03.2019 01:48 8,5 C 7,8 C 6,7 C 93 % 1007,9 hPa 0,0 l/m 0 min 2 min 0 W/m 6,4 km/h (2 Bft) 100,00 %
16.03.2019 01:50 8,5 C 7,8 C 6,7 C 93 % 1007,9 hPa 0,0 l/m 0 min 2 min 0 W/m 19,3 km/h (3 Bft) 100,00 %
16.03.2019 01:52 8,5 C 7,8 C 6,7 C 93 % 1007,9 hPa 0,0 l/m 0 min 2 min 0 W/m 16,1 km/h (3 Bft) 93,48 %
16.03.2019 01:54 8,5 C 7,8 C 6,7 C 93 % 1007,9 hPa 0,0 l/m 0 min 2 min 0 W/m 12,9 km/h (3 Bft) 97,87 %
16.03.2019 01:56 8,5 C 7,8 C 6,7 C 93 % 1007,8 hPa 0,0 l/m 0 min 2 min 0 W/m 6,4 km/h (2 Bft) 97,87 %
16.03.2019 01:58 8,5 C 7,2 C 6,7 C 93 % 1007,9 hPa 0,0 l/m 0 min 2 min 0 W/m 19,3 km/h (3 Bft) 97,87 %
16.03.2019 02:00 8,5 C 7,2 C 6,7 C 93 % 1007,9 hPa 0,0 l/m 0 min 2 min 0 W/m 9,7 km/h (2 Bft) 97,87 %
16.03.2019 02:02 8,5 C 7,2 C 6,7 C 92 % 1008,0 hPa 0,0 l/m 0 min 2 min 0 W/m 12,9 km/h (3 Bft) 97,87 %
16.03.2019 02:04 8,5 C 7,2 C 6,1 C 92 % 1008,0 hPa 0,0 l/m 0 min 2 min 0 W/m 12,9 km/h (3 Bft) 95,65 %
16.03.2019 02:06 8,5 C 7,2 C 6,1 C 92 % 1008,0 hPa 0,2 l/m 0 min 2 min 0 W/m 22,5 km/h (4 Bft) 95,74 %
16.03.2019 02:08 8,4 C 7,2 C 6,1 C 92 % 1008,0 hPa 0,0 l/m 0 min 2 min 0 W/m 16,1 km/h (3 Bft) 95,74 %
16.03.2019 02:10 8,4 C 7,2 C 6,1 C 92 % 1008,0 hPa 0,0 l/m 0 min 2 min 0 W/m 12,9 km/h (3 Bft) 95,74 %
16.03.2019 02:12 8,4 C 7,2 C 6,1 C 92 % 1008,0 hPa 0,0 l/m 0 min 2 min 0 W/m 16,1 km/h (3 Bft) 97,87 %
16.03.2019 02:14 8,4 C 7,2 C 6,1 C 91 % 1008,0 hPa 0,0 l/m 0 min 2 min 0 W/m 22,5 km/h (4 Bft) 97,87 %
16.03.2019 02:16 8,3 C 7,2 C 6,1 C 91 % 1008,0 hPa 0,0 l/m 0 min 2 min 0 W/m 25,7 km/h (4 Bft) 97,83 %
16.03.2019 02:18 8,3 C 7,2 C 6,1 C 91 % 1008,0 hPa 0,0 l/m 0 min 2 min 0 W/m 22,5 km/h (4 Bft) 97,87 %
16.03.2019 02:20 8,3 C 6,7 C 6,1 C 91 % 1008,0 hPa 0,0 l/m 0 min 2 min 0 W/m 12,9 km/h (3 Bft) 97,87 %
16.03.2019 02:22 8,3 C 6,7 C 6,1 C 91 % 1008,0 hPa 0,0 l/m 0 min 2 min 0 W/m 12,9 km/h (3 Bft) 97,87 %
16.03.2019 02:24 8,3 C 6,7 C 6,1 C 91 % 1007,9 hPa 0,0 l/m 0 min 2 min 0 W/m 16,1 km/h (3 Bft) 95,74 %
16.03.2019 02:26 8,3 C 6,7 C 6,1 C 91 % 1007,9 hPa 0,0 l/m 0 min 2 min 0 W/m 9,7 km/h (2 Bft) 95,74 %
16.03.2019 02:28 8,3 C 6,7 C 6,1 C 91 % 1008,0 hPa 0,0 l/m 0 min 2 min 0 W/m 6,4 km/h (2 Bft) 97,83 %
16.03.2019 02:30 8,3 C 6,7 C 6,1 C 91 % 1008,0 hPa 0,0 l/m 0 min 0 min 0 W/m 3,2 km/h (1 Bft) 97,87 %
16.03.2019 02:32 8,3 C 6,7 C 6,1 C 91 % 1008,0 hPa 0,0 l/m 0 min 0 min 0 W/m 6,4 km/h (2 Bft) 97,87 %
16.03.2019 02:34 8,2 C 6,7 C 6,1 C 91 % 1008,1 hPa 0,0 l/m 0 min 2 min 0 W/m 9,7 km/h (2 Bft) 97,87 %
16.03.2019 02:36 8,2 C 6,7 C 6,1 C 91 % 1008,0 hPa 0,0 l/m 0 min 2 min 0 W/m 6,4 km/h (2 Bft) 100,00 %
16.03.2019 02:38 8,2 C 6,7 C 6,1 C 91 % 1008,1 hPa 0,0 l/m 0 min 2 min 0 W/m 9,7 km/h (2 Bft) 97,87 %
16.03.2019 02:40 8,2 C 6,7 C 6,1 C 91 % 1008,1 hPa 0,0 l/m 0 min 2 min 0 W/m 9,7 km/h (2 Bft) 100,00 %
16.03.2019 02:42 8,2 C 6,7 C 6,1 C 91 % 1008,1 hPa 0,0 l/m 0 min 2 min 0 W/m 3,2 km/h (1 Bft) 100,00 %
16.03.2019 02:44 8,2 C 6,7 C 6,1 C 91 % 1008,1 hPa 0,0 l/m 0 min 2 min 0 W/m 9,7 km/h (2 Bft) 100,00 %
16.03.2019 02:46 8,2 C 6,7 C 6,1 C 91 % 1008,1 hPa 0,0 l/m 0 min 2 min 0 W/m 9,7 km/h (2 Bft) 97,87 %
16.03.2019 02:48 8,2 C 6,7 C 6,1 C 91 % 1008,0 hPa 0,0 l/m 0 min 2 min 0 W/m 9,7 km/h (2 Bft) 100,00 %
16.03.2019 02:50 8,2 C 6,7 C 6,1 C 91 % 1008,0 hPa 0,0 l/m 0 min 2 min 0 W/m 9,7 km/h (2 Bft) 100,00 %
16.03.2019 02:52 8,2 C 6,7 C 6,1 C 91 % 1008,0 hPa 0,0 l/m 0 min 2 min 0 W/m 9,7 km/h (2 Bft) 100,00 %
16.03.2019 02:54 8,2 C 6,7 C 6,1 C 91 % 1008,0 hPa 0,0 l/m 0 min 2 min 0 W/m 12,9 km/h (3 Bft) 100,00 %
16.03.2019 02:56 8,2 C 6,7 C 6,1 C 91 % 1008,0 hPa 0,0 l/m 0 min 2 min 0 W/m 19,3 km/h (3 Bft) 97,87 %
16.03.2019 02:58 8,2 C 6,7 C 6,1 C 91 % 1008,1 hPa 0,0 l/m 0 min 2 min 0 W/m 16,1 km/h (3 Bft) 100,00 %
16.03.2019 03:00 8,2 C 6,7 C 6,1 C 91 % 1008,0 hPa 0,0 l/m 0 min 2 min 0 W/m 9,7 km/h (2 Bft) 97,87 %
16.03.2019 03:02 8,2 C 6,7 C 6,1 C 91 % 1008,0 hPa 0,0 l/m 0 min 2 min 0 W/m 9,7 km/h (2 Bft) 97,87 %
16.03.2019 03:04 8,2 C 6,7 C 6,1 C 91 % 1008,1 hPa 0,0 l/m 0 min 2 min 0 W/m 6,4 km/h (2 Bft) 97,83 %
16.03.2019 03:06 8,1 C 6,7 C 5,6 C 91 % 1008,0 hPa 0,2 l/m 0 min 2 min 0 W/m 6,4 km/h (2 Bft) 100,00 %
16.03.2019 03:08 8,1 C 6,7 C 5,6 C 91 % 1008,0 hPa 0,0 l/m 0 min 2 min 0 W/m 6,4 km/h (2 Bft) 97,87 %
16.03.2019 03:10 8,1 C 6,7 C 5,6 C 91 % 1008,0 hPa 0,0 l/m 0 min 2 min 0 W/m 6,4 km/h (2 Bft) 97,87 %
16.03.2019 03:12 8,1 C 6,7 C 5,6 C 91 % 1008,0 hPa 0,0 l/m 0 min 2 min 0 W/m 9,7 km/h (2 Bft) 97,87 %
16.03.2019 03:14 8,1 C 6,7 C 5,6 C 91 % 1007,9 hPa 0,0 l/m 0 min 2 min 0 W/m 9,7 km/h (2 Bft) 97,83 %
16.03.2019 03:16 8,1 C 6,7 C 5,6 C 91 % 1008,0 hPa 0,0 l/m 0 min 2 min 0 W/m 9,7 km/h (2 Bft) 97,87 %
16.03.2019 03:18 8,1 C 6,1 C 5,6 C 91 % 1007,9 hPa 0,0 l/m 0 min 2 min 0 W/m 6,4 km/h (2 Bft) 97,87 %
16.03.2019 03:20 8,1 C 6,1 C 5,6 C 91 % 1007,9 hPa 0,0 l/m 0 min 2 min 0 W/m 6,4 km/h (2 Bft) 97,87 %
16.03.2019 03:22 8,0 C 6,1 C 5,6 C 91 % 1007,9 hPa 0,0 l/m 0 min 2 min 0 W/m 3,2 km/h (1 Bft) 95,74 %
16.03.2019 03:24 8,0 C 6,1 C 5,6 C 91 % 1007,9 hPa 0,0 l/m 0 min 2 min 0 W/m 3,2 km/h (1 Bft) 97,87 %
16.03.2019 03:26 8,0 C 6,1 C 5,6 C 91 % 1007,8 hPa 0,0 l/m 0 min 2 min 0 W/m 6,4 km/h (2 Bft) 97,83 %
16.03.2019 03:28 8,0 C 6,1 C 5,6 C 91 % 1007,9 hPa 0,2 l/m 0 min 2 min 0 W/m 3,2 km/h (1 Bft) 97,87 %
16.03.2019 03:30 8,0 C 6,1 C 6,1 C 91 % 1007,9 hPa 0,0 l/m 0 min 2 min 0 W/m 12,9 km/h (3 Bft) 97,87 %
16.03.2019 03:32 7,9 C 6,1 C 6,1 C 91 % 1007,8 hPa 0,0 l/m 0 min 2 min 0 W/m 6,4 km/h (2 Bft) 97,87 %
16.03.2019 03:34 7,9 C 6,1 C 6,1 C 91 % 1007,8 hPa 0,0 l/m 0 min 2 min 0 W/m 3,2 km/h (1 Bft) 95,74 %
16.03.2019 03:36 7,9 C 6,1 C 6,1 C 92 % 1007,8 hPa 0,0 l/m 0 min 2 min 0 W/m 3,2 km/h (1 Bft) 97,87 %
16.03.2019 03:38 7,9 C 6,1 C 6,1 C 92 % 1007,8 hPa 0,0 l/m 0 min 2 min 0 W/m 3,2 km/h (1 Bft) 97,83 %
16.03.2019 03:40 7,9 C 6,1 C 6,1 C 92 % 1007,7 hPa 0,0 l/m 0 min 2 min 0 W/m 0,0 km/h (0 Bft) 97,87 %
16.03.2019 03:42 7,9 C 6,1 C 6,1 C 92 % 1007,7 hPa 0,0 l/m 0 min 2 min 0 W/m 6,4 km/h (2 Bft) 97,87 %
16.03.2019 03:44 7,9 C 6,1 C 6,1 C 92 % 1007,6 hPa 0,0 l/m 0 min 2 min 0 W/m 3,2 km/h (1 Bft) 97,87 %
16.03.2019 03:46 7,9 C 6,1 C 6,1 C 92 % 1007,6 hPa 0,0 l/m 0 min 2 min 0 W/m 0,0 km/h (0 Bft) 97,87 %
16.03.2019 03:48 7,9 C 6,1 C 6,1 C 92 % 1007,7 hPa 0,0 l/m 0 min 2 min 0 W/m 0,0 km/h (0 Bft) 97,87 %
16.03.2019 03:50 7,9 C 6,1 C 6,1 C 92 % 1007,7 hPa 0,0 l/m 0 min 2 min 0 W/m 0,0 km/h (0 Bft) 95,65 %
16.03.2019 03:52 7,8 C 6,1 C 6,1 C 92 % 1007,6 hPa 0,0 l/m 0 min 2 min 0 W/m 0,0 km/h (0 Bft) 97,87 %
16.03.2019 03:54 7,8 C 6,1 C 6,1 C 92 % 1007,6 hPa 0,0 l/m 0 min 2 min 0 W/m 0,0 km/h (0 Bft) 95,74 %
16.03.2019 03:56 7,8 C 6,1 C 6,1 C 92 % 1007,6 hPa 0,0 l/m 0 min 2 min 0 W/m 9,7 km/h (2 Bft) 97,87 %
16.03.2019 03:58 7,8 C 6,1 C 6,1 C 92 % 1007,6 hPa 0,0 l/m 0 min 2 min 0 W/m 3,2 km/h (1 Bft) 100,00 %
16.03.2019 04:00 7,8 C 6,1 C 6,1 C 92 % 1007,6 hPa 0,0 l/m 0 min 2 min 0 W/m 6,4 km/h (2 Bft) 100,00 %
16.03.2019 04:02 7,8 C 6,1 C 6,1 C 93 % 1007,6 hPa 0,0 l/m 0 min 2 min 0 W/m 3,2 km/h (1 Bft) 95,24 %
16.03.2019 04:04 7,8 C 6,1 C 6,1 C 93 % 1007,6 hPa 0,2 l/m 0 min 2 min 0 W/m 9,7 km/h (2 Bft) 97,87 %
16.03.2019 04:06 7,8 C 6,1 C 6,1 C 93 % 1007,6 hPa 0,0 l/m 0 min 2 min 0 W/m 3,2 km/h (1 Bft) 100,00 %
16.03.2019 04:08 7,8 C 6,1 C 6,1 C 93 % 1007,6 hPa 0,0 l/m 0 min 2 min 0 W/m 3,2 km/h (1 Bft) 97,87 %
16.03.2019 04:10 7,8 C 6,1 C 6,1 C 93 % 1007,6 hPa 0,0 l/m 0 min 2 min 0 W/m 0,0 km/h (0 Bft) 100,00 %
16.03.2019 04:12 7,8 C 6,1 C 6,1 C 93 % 1007,7 hPa 0,0 l/m 0 min 2 min 0 W/m 0,0 km/h (0 Bft) 95,74 %
16.03.2019 04:14 7,8 C 6,1 C 6,1 C 93 % 1007,7 hPa 0,0 l/m 0 min 2 min 0 W/m 0,0 km/h (0 Bft) 97,83 %
16.03.2019 04:16 7,8 C 6,1 C 6,1 C 93 % 1007,7 hPa 0,2 l/m 0 min 2 min 0 W/m 0,0 km/h (0 Bft) 95,74 %
16.03.2019 04:18 7,7 C 6,1 C 6,1 C 93 % 1007,6 hPa 0,0 l/m 0 min 2 min 0 W/m 0,0 km/h (0 Bft) 97,87 %
16.03.2019 04:20 7,7 C 6,7 C 6,1 C 93 % 1007,5 hPa 0,0 l/m 0 min 2 min 0 W/m 3,2 km/h (1 Bft) 97,87 %
16.03.2019 04:22 7,7 C 6,1 C 6,1 C 93 % 1007,3 hPa 0,0 l/m 0 min 2 min 0 W/m 3,2 km/h (1 Bft) 97,87 %
16.03.2019 04:24 7,7 C 6,7 C 6,1 C 94 % 1007,4 hPa 0,0 l/m 0 min 2 min 0 W/m 6,4 km/h (2 Bft) 93,62 %
16.03.2019 04:26 7,7 C 6,7 C 6,1 C 94 % 1007,3 hPa 0,0 l/m 0 min 2 min 0 W/m 3,2 km/h (1 Bft) 97,83 %
16.03.2019 04:28 7,7 C 6,7 C 6,1 C 94 % 1007,4 hPa 0,0 l/m 0 min 2 min 0 W/m 3,2 km/h (1 Bft) 97,87 %
16.03.2019 04:30 7,7 C 6,7 C 6,1 C 94 % 1007,5 hPa 0,0 l/m 0 min 2 min 0 W/m 0,0 km/h (0 Bft) 95,74 %
16.03.2019 04:32 7,7 C 6,7 C 6,1 C 94 % 1007,6 hPa 0,2 l/m 0 min 2 min 0 W/m 3,2 km/h (1 Bft) 95,74 %
16.03.2019 04:34 7,7 C 6,7 C 6,1 C 94 % 1007,5 hPa 0,0 l/m 0 min 2 min 0 W/m 3,2 km/h (1 Bft) 95,74 %
16.03.2019 04:36 7,7 C 6,7 C 6,1 C 94 % 1007,6 hPa 0,0 l/m 0 min 2 min 0 W/m 3,2 km/h (1 Bft) 95,65 %
16.03.2019 04:38 7,7 C 6,7 C 6,1 C 94 % 1007,6 hPa 0,0 l/m 0 min 2 min 0 W/m 0,0 km/h (0 Bft) 97,87 %
16.03.2019 04:40 7,7 C 6,7 C 6,1 C 94 % 1007,6 hPa 0,2 l/m 0 min 2 min 0 W/m 0,0 km/h (0 Bft) 95,74 %
16.03.2019 04:42 7,7 C 6,7 C 6,1 C 94 % 1007,6 hPa 0,0 l/m 0 min 2 min 0 W/m 3,2 km/h (1 Bft) 95,74 %
16.03.2019 04:44 7,7 C 6,7 C 6,1 C 94 % 1007,6 hPa 0,0 l/m 0 min 2 min 0 W/m 0,0 km/h (0 Bft) 95,74 %
16.03.2019 04:46 7,7 C 6,7 C 6,1 C 94 % 1007,6 hPa 0,0 l/m 0 min 2 min 0 W/m 3,2 km/h (1 Bft) 93,62 %
16.03.2019 04:48 7,7 C 6,7 C 6,1 C 95 % 1007,5 hPa 0,0 l/m 0 min 2 min 0 W/m 3,2 km/h (1 Bft) 95,65 %
16.03.2019 04:50 7,7 C 6,7 C 6,1 C 95 % 1007,5 hPa 0,0 l/m 0 min 2 min 0 W/m 3,2 km/h (1 Bft) 95,74 %
16.03.2019 04:52 7,7 C 6,7 C 6,1 C 95 % 1007,5 hPa 0,0 l/m 0 min 2 min 0 W/m 16,1 km/h (3 Bft) 95,74 %
16.03.2019 04:54 7,7 C 6,7 C 6,1 C 95 % 1007,4 hPa 0,2 l/m 0 min 2 min 0 W/m 9,7 km/h (2 Bft) 95,74 %
16.03.2019 04:56 7,7 C 6,7 C 6,1 C 95 % 1007,5 hPa 0,0 l/m 0 min 2 min 0 W/m 6,4 km/h (2 Bft) 95,74 %
16.03.2019 04:58 7,7 C 6,7 C 6,1 C 95 % 1007,5 hPa 0,0 l/m 0 min 2 min 0 W/m 9,7 km/h (2 Bft) 93,62 %
16.03.2019 05:00 7,7 C 6,7 C 6,1 C 95 % 1007,5 hPa 0,0 l/m 0 min 2 min 0 W/m 12,9 km/h (3 Bft) 95,65 %
16.03.2019 05:02 7,7 C 6,7 C 6,1 C 95 % 1007,5 hPa 0,2 l/m 0 min 2 min 0 W/m 6,4 km/h (2 Bft) 91,49 %
16.03.2019 05:04 7,7 C 6,7 C 6,1 C 95 % 1007,5 hPa 0,0 l/m 0 min 2 min 0 W/m 6,4 km/h (2 Bft) 97,87 %
16.03.2019 05:05 7,7 C 6,7 C 6,1 C 95 % 1007,5 hPa 0,2 l/m 0 min 1 min 0 W/m 6,4 km/h (2 Bft) 99,12 %
16.03.2019 05:10 7,7 C 6,7 C 6,1 C 96 % 1007,4 hPa 0,0 l/m 0 min 5 min 0 W/m 9,7 km/h (2 Bft) 98,25 %
16.03.2019 05:12 7,7 C 6,7 C 6,1 C 96 % 1007,4 hPa 0,0 l/m 0 min 2 min 0 W/m 0,0 km/h (0 Bft) 100,00 %
16.03.2019 05:14 7,7 C 6,7 C 6,1 C 96 % 1007,4 hPa 0,0 l/m 0 min 2 min 0 W/m 6,4 km/h (2 Bft) 100,00 %
16.03.2019 05:20 7,7 C 6,7 C 6,1 C 96 % 1007,5 hPa 0,0 l/m 0 min 5 min 0 W/m 9,7 km/h (2 Bft) 94,44 %
16.03.2019 05:22 7,7 C 6,7 C 6,1 C 96 % 1007,4 hPa 0,0 l/m 0 min 2 min 0 W/m 6,4 km/h (2 Bft) 100,00 %
16.03.2019 05:24 7,7 C 6,7 C 6,1 C 96 % 1007,5 hPa 0,2 l/m 0 min 2 min 0 W/m 3,2 km/h (1 Bft) 100,00 %
16.03.2019 05:26 7,7 C 6,7 C 6,1 C 96 % 1007,5 hPa 0,0 l/m 0 min 2 min 0 W/m 0,0 km/h (0 Bft) 97,83 %
16.03.2019 05:28 7,7 C 6,7 C 6,1 C 96 % 1007,4 hPa 0,0 l/m 0 min 2 min 0 W/m 0,0 km/h (0 Bft) 100,00 %
16.03.2019 05:30 7,7 C 6,7 C 6,1 C 96 % 1007,4 hPa 0,0 l/m 0 min 2 min 0 W/m 0,0 km/h (0 Bft) 100,00 %
16.03.2019 05:32 7,7 C 6,7 C 6,1 C 96 % 1007,4 hPa 0,0 l/m 0 min 2 min 0 W/m 0,0 km/h (0 Bft) 100,00 %
16.03.2019 05:34 7,7 C 6,7 C 6,1 C 96 % 1007,4 hPa 0,2 l/m 0 min 2 min 0 W/m 3,2 km/h (1 Bft) 100,00 %
16.03.2019 05:36 7,7 C 6,7 C 6,1 C 96 % 1007,5 hPa 0,0 l/m 0 min 2 min 0 W/m 3,2 km/h (1 Bft) 98,28 %
16.03.2019 05:38 7,7 C 6,7 C 6,1 C 96 % 1007,5 hPa 0,0 l/m 0 min 2 min 0 W/m 3,2 km/h (1 Bft) 100,00 %
16.03.2019 05:40 7,6 C 6,7 C 6,1 C 96 % 1007,5 hPa 0,0 l/m 0 min 2 min 0 W/m 0,0 km/h (0 Bft) 97,87 %
16.03.2019 05:42 7,6 C 6,7 C 6,1 C 96 % 1007,4 hPa 0,0 l/m 0 min 2 min 0 W/m 0,0 km/h (0 Bft) 100,00 %
16.03.2019 05:44 7,6 C 6,7 C 6,1 C 96 % 1007,4 hPa 0,2 l/m 0 min 2 min 0 W/m 3,2 km/h (1 Bft) 100,00 %
16.03.2019 05:46 7,6 C 6,7 C 6,1 C 96 % 1007,4 hPa 0,0 l/m 0 min 2 min 0 W/m 3,2 km/h (1 Bft) 100,00 %
16.03.2019 05:48 7,6 C 6,7 C 6,1 C 96 % 1007,4 hPa 0,0 l/m 0 min 2 min 0 W/m 3,2 km/h (1 Bft) 95,65 %
16.03.2019 05:50 7,6 C 6,7 C 6,1 C 96 % 1007,4 hPa 0,0 l/m 0 min 2 min 0 W/m 0,0 km/h (0 Bft) 97,87 %
16.03.2019 05:52 7,6 C 6,7 C 6,1 C 96 % 1007,4 hPa 0,0 l/m 0 min 2 min 0 W/m 9,7 km/h (2 Bft) 100,00 %
16.03.2019 05:54 7,6 C 6,7 C 6,1 C 96 % 1007,4 hPa 0,0 l/m 0 min 2 min 0 W/m 3,2 km/h (1 Bft) 100,00 %
16.03.2019 05:56 7,6 C 6,7 C 6,1 C 96 % 1007,4 hPa 0,0 l/m 0 min 2 min 0 W/m 0,0 km/h (0 Bft) 100,00 %
16.03.2019 05:58 7,6 C 6,7 C 6,1 C 96 % 1007,4 hPa 0,0 l/m 0 min 2 min 0 W/m 6,4 km/h (2 Bft) 97,87 %
16.03.2019 06:00 7,6 C 6,7 C 6,1 C 96 % 1007,4 hPa 0,0 l/m 0 min 2 min 0 W/m 3,2 km/h (1 Bft) 97,83 %
16.03.2019 06:02 7,6 C 6,7 C 6,1 C 97 % 1007,3 hPa 0,0 l/m 0 min 2 min 0 W/m 3,2 km/h (1 Bft) 97,87 %
16.03.2019 06:04 7,5 C 6,7 C 6,1 C 97 % 1007,4 hPa 0,0 l/m 0 min 2 min 0 W/m 9,7 km/h (2 Bft) 97,87 %
16.03.2019 06:07 7,5 C 6,7 C 6,1 C 96 % 1007,3 hPa 0,2 l/m 0 min 3 min 0 W/m 6,4 km/h (2 Bft) 97,56 %
16.03.2019 06:08 7,5 C 6,7 C 6,1 C 97 % 1007,3 hPa 0,0 l/m 0 min 1 min 0 W/m 3,2 km/h (1 Bft) 100,00 %
16.03.2019 06:10 7,5 C 6,7 C 6,1 C 96 % 1007,3 hPa 0,0 l/m 0 min 2 min 0 W/m 0,0 km/h (0 Bft) 97,87 %
16.03.2019 06:12 7,4 C 6,7 C 6,1 C 96 % 1007,3 hPa 0,0 l/m 0 min 2 min 0 W/m 0,0 km/h (0 Bft) 95,65 %
16.03.2019 06:14 7,4 C 6,1 C 6,1 C 96 % 1007,3 hPa 0,0 l/m 0 min 2 min 0 W/m 6,4 km/h (2 Bft) 97,87 %
16.03.2019 06:16 7,4 C 6,1 C 6,1 C 96 % 1007,3 hPa 0,0 l/m 0 min 2 min 0 W/m 0,0 km/h (0 Bft) 97,87 %
16.03.2019 06:18 7,4 C 6,1 C 6,1 C 97 % 1007,2 hPa 0,0 l/m 0 min 2 min 0 W/m 3,2 km/h (1 Bft) 97,87 %
16.03.2019 06:20 7,4 C 6,1 C 6,1 C 97 % 1007,2 hPa 0,0 l/m 0 min 2 min 0 W/m 3,2 km/h (1 Bft) 97,87 %
16.03.2019 06:22 7,4 C 6,1 C 6,1 C 97 % 1007,2 hPa 0,0 l/m 0 min 2 min 0 W/m 3,2 km/h (1 Bft) 95,65 %
16.03.2019 06:24 7,4 C 6,1 C 6,1 C 97 % 1007,2 hPa 0,0 l/m 0 min 2 min 0 W/m 6,4 km/h (2 Bft) 97,87 %
16.03.2019 06:26 7,4 C 6,1 C 6,1 C 97 % 1007,3 hPa 0,0 l/m 0 min 2 min 0 W/m 0,0 km/h (0 Bft) 97,87 %
16.03.2019 06:28 7,3 C 6,1 C 6,1 C 97 % 1007,2 hPa 0,0 l/m 0 min 2 min 0 W/m 0,0 km/h (0 Bft) 97,87 %
16.03.2019 06:30 7,3 C 6,1 C 6,1 C 97 % 1007,1 hPa 0,2 l/m 0 min 2 min 0 W/m 0,0 km/h (0 Bft) 97,87 %
16.03.2019 06:32 7,3 C 6,1 C 6,1 C 97 % 1007,2 hPa 0,0 l/m 0 min 2 min 0 W/m 6,4 km/h (2 Bft) 97,87 %
16.03.2019 06:34 7,3 C 6,1 C 6,1 C 97 % 1007,2 hPa 0,0 l/m 0 min 2 min 0 W/m 3,2 km/h (1 Bft) 97,83 %
16.03.2019 06:36 7,3 C 6,1 C 6,1 C 97 % 1007,2 hPa 0,0 l/m 0 min 2 min 0 W/m 3,2 km/h (1 Bft) 96,61 %
16.03.2019 06:38 7,3 C 6,1 C 6,1 C 97 % 1007,2 hPa 0,0 l/m 0 min 2 min 0 W/m 0,0 km/h (0 Bft) 100,00 %
16.03.2019 06:40 7,3 C 6,1 C 6,1 C 97 % 1007,1 hPa 0,0 l/m 0 min 2 min 0 W/m 3,2 km/h (1 Bft) 97,87 %
16.03.2019 06:42 7,3 C 6,1 C 5,6 C 97 % 1007,1 hPa 0,0 l/m 0 min 2 min 0 W/m 3,2 km/h (1 Bft) 95,74 %
16.03.2019 06:44 7,2 C 6,1 C 6,1 C 97 % 1007,1 hPa 0,0 l/m 0 min 2 min 0 W/m 0,0 km/h (0 Bft) 97,87 %
16.03.2019 06:46 7,3 C 6,1 C 6,1 C 97 % 1007,1 hPa 0,0 l/m 0 min 2 min 0 W/m 3,2 km/h (1 Bft) 97,83 %
16.03.2019 06:48 7,2 C 6,1 C 5,6 C 97 % 1007,1 hPa 0,2 l/m 0 min 2 min 0 W/m 3,2 km/h (1 Bft) 97,87 %
16.03.2019 06:50 7,2 C 6,1 C 5,6 C 97 % 1007,1 hPa 0,0 l/m 0 min 2 min 0 W/m 0,0 km/h (0 Bft) 97,87 %
16.03.2019 06:52 7,2 C 6,1 C 5,6 C 97 % 1007,0 hPa 0,0 l/m 0 min 2 min 0 W/m 3,2 km/h (1 Bft) 100,00 %
16.03.2019 06:54 7,2 C 6,1 C 6,1 C 97 % 1007,1 hPa 0,0 l/m 0 min 2 min 0 W/m 3,2 km/h (1 Bft) 100,00 %
16.03.2019 06:56 7,2 C 6,1 C 5,6 C 97 % 1007,1 hPa 0,0 l/m 0 min 2 min 0 W/m 3,2 km/h (1 Bft) 97,87 %
16.03.2019 06:58 7,2 C 6,1 C 5,6 C 97 % 1007,1 hPa 0,2 l/m 0 min 2 min 0 W/m 3,2 km/h (1 Bft) 93,48 %
16.03.2019 07:00 7,2 C 6,1 C 5,6 C 97 % 1007,1 hPa 0,0 l/m 0 min 2 min 0 W/m 3,2 km/h (1 Bft) 93,62 %
16.03.2019 07:02 7,2 C 6,1 C 5,6 C 97 % 1007,1 hPa 0,0 l/m 0 min 2 min 0 W/m 3,2 km/h (1 Bft) 95,74 %
16.03.2019 07:04 7,2 C 6,1 C 5,6 C 97 % 1007,1 hPa 0,0 l/m 0 min 2 min 0 W/m 3,2 km/h (1 Bft) 97,87 %
16.03.2019 07:06 7,2 C 6,1 C 5,6 C 97 % 1007,1 hPa 0,0 l/m 0 min 2 min 0 W/m 6,4 km/h (2 Bft) 96,55 %
16.03.2019 07:08 7,2 C 6,1 C 5,6 C 97 % 1007,2 hPa 0,0 l/m 0 min 2 min 0 W/m 3,2 km/h (1 Bft) 97,22 %
16.03.2019 07:10 7,2 C 6,1 C 5,6 C 97 % 1007,1 hPa 0,0 l/m 0 min 2 min 1 W/m 3,2 km/h (1 Bft) 95,65 %
16.03.2019 07:12 7,2 C 6,1 C 5,6 C 97 % 1007,1 hPa 0,0 l/m 0 min 2 min 5 W/m 3,2 km/h (1 Bft) 97,87 %
16.03.2019 07:14 7,2 C 6,1 C 5,6 C 97 % 1007,0 hPa 0,2 l/m 0 min 2 min 6 W/m 3,2 km/h (1 Bft) 97,87 %
16.03.2019 07:16 7,2 C 6,1 C 5,6 C 97 % 1007,0 hPa 0,0 l/m 0 min 2 min 7 W/m 6,4 km/h (2 Bft) 97,87 %
16.03.2019 07:18 7,2 C 6,1 C 5,6 C 97 % 1007,0 hPa 0,0 l/m 0 min 2 min 7 W/m 6,4 km/h (2 Bft) 97,87 %
16.03.2019 07:20 7,2 C 6,1 C 5,6 C 97 % 1007,0 hPa 0,0 l/m 0 min 2 min 6 W/m 6,4 km/h (2 Bft) 97,87 %
16.03.2019 07:22 7,1 C 6,1 C 5,6 C 97 % 1006,9 hPa 0,0 l/m 0 min 2 min 6 W/m 9,7 km/h (2 Bft) 95,65 %
16.03.2019 07:24 7,2 C 6,1 C 5,6 C 97 % 1007,0 hPa 0,0 l/m 0 min 2 min 6 W/m 6,4 km/h (2 Bft) 93,62 %
16.03.2019 07:26 7,2 C 6,1 C 5,6 C 97 % 1007,0 hPa 0,0 l/m 0 min 2 min 5 W/m 6,4 km/h (2 Bft) 95,74 %
16.03.2019 07:28 7,1 C 6,1 C 6,1 C 97 % 1007,1 hPa 0,2 l/m 0 min 2 min 5 W/m 6,4 km/h (2 Bft) 95,74 %
16.03.2019 07:30 7,2 C 6,1 C 6,1 C 97 % 1007,0 hPa 0,0 l/m 0 min 2 min 9 W/m 9,7 km/h (2 Bft) 95,74 %
16.03.2019 07:32 7,2 C 6,1 C 6,1 C 97 % 1007,0 hPa 0,0 l/m 0 min 2 min 9 W/m 9,7 km/h (2 Bft) 93,62 %
16.03.2019 07:34 7,2 C 6,1 C 6,1 C 97 % 1007,0 hPa 0,0 l/m 0 min 2 min 11 W/m 9,7 km/h (2 Bft) 93,48 %
16.03.2019 07:36 7,2 C 6,1 C 6,1 C 97 % 1007,0 hPa 0,0 l/m 0 min 2 min 12 W/m 6,4 km/h (2 Bft) 93,22 %
16.03.2019 07:38 7,2 C 6,1 C 6,1 C 97 % 1006,9 hPa 0,0 l/m 0 min 2 min 14 W/m 6,4 km/h (2 Bft) 100,00 %
16.03.2019 07:40 7,2 C 6,7 C 6,1 C 97 % 1007,0 hPa 0,0 l/m 0 min 2 min 17 W/m 6,4 km/h (2 Bft) 93,62 %
16.03.2019 07:42 7,2 C 6,7 C 6,1 C 97 % 1007,0 hPa 0,0 l/m 0 min 2 min 19 W/m 16,1 km/h (3 Bft) 93,62 %
16.03.2019 07:44 7,2 C 6,7 C 6,1 C 97 % 1006,9 hPa 0,0 l/m 0 min 2 min 19 W/m 12,9 km/h (3 Bft) 97,87 %
16.03.2019 07:46 7,2 C 6,7 C 6,1 C 97 % 1006,9 hPa 0,0 l/m 0 min 2 min 18 W/m 12,9 km/h (3 Bft) 97,83 %
16.03.2019 07:48 7,2 C 6,7 C 6,1 C 97 % 1006,8 hPa 0,2 l/m 0 min 2 min 19 W/m 9,7 km/h (2 Bft) 97,87 %
16.03.2019 07:50 7,2 C 6,7 C 6,1 C 97 % 1006,8 hPa 0,0 l/m 0 min 2 min 20 W/m 12,9 km/h (3 Bft) 97,87 %
16.03.2019 07:52 7,2 C 6,7 C 6,1 C 97 % 1006,8 hPa 0,0 l/m 0 min 2 min 22 W/m 16,1 km/h (3 Bft) 95,74 %
16.03.2019 07:54 7,2 C 6,7 C 6,1 C 97 % 1006,8 hPa 0,0 l/m 0 min 2 min 25 W/m 12,9 km/h (3 Bft) 97,87 %
16.03.2019 07:56 7,3 C 6,7 C 6,1 C 97 % 1006,7 hPa 0,0 l/m 0 min 2 min 30 W/m 19,3 km/h (3 Bft) 97,83 %
16.03.2019 07:58 7,3 C 6,7 C 6,1 C 97 % 1006,7 hPa 0,0 l/m 0 min 2 min 27 W/m 22,5 km/h (4 Bft) 97,87 %
16.03.2019 08:00 7,3 C 6,7 C 6,1 C 97 % 1006,7 hPa 0,0 l/m 0 min 0 min 28 W/m 22,5 km/h (4 Bft) 97,87 %
16.03.2019 08:02 7,4 C 6,7 C 6,7 C 98 % 1006,7 hPa 0,0 l/m 0 min 2 min 28 W/m 16,1 km/h (3 Bft) 97,87 %
16.03.2019 08:04 7,4 C 7,2 C 6,7 C 98 % 1006,7 hPa 0,0 l/m 0 min 2 min 35 W/m 16,1 km/h (3 Bft) 97,87 %
16.03.2019 08:06 7,5 C 7,2 C 6,7 C 98 % 1006,5 hPa 0,0 l/m 0 min 2 min 58 W/m 12,9 km/h (3 Bft) 96,55 %
16.03.2019 08:08 7,5 C 7,2 C 6,7 C 98 % 1006,5 hPa 0,0 l/m 0 min 2 min 76 W/m 12,9 km/h (3 Bft) 97,56 %
16.03.2019 08:10 7,6 C 7,2 C 6,7 C 98 % 1006,5 hPa 0,0 l/m 0 min 2 min 84 W/m 16,1 km/h (3 Bft) 97,87 %
16.03.2019 08:12 7,7 C 7,8 C 7,2 C 98 % 1006,4 hPa 0,0 l/m 0 min 2 min 91 W/m 16,1 km/h (3 Bft) 95,74 %
16.03.2019 08:14 7,8 C 7,8 C 7,2 C 98 % 1006,4 hPa 0,0 l/m 0 min 2 min 72 W/m 16,1 km/h (3 Bft) 97,87 %
16.03.2019 08:16 7,9 C 7,8 C 7,2 C 98 % 1006,5 hPa 0,0 l/m 0 min 2 min 53 W/m 16,1 km/h (3 Bft) 100,00 %
16.03.2019 08:18 7,9 C 7,8 C 7,2 C 98 % 1006,5 hPa 0,0 l/m 0 min 2 min 49 W/m 12,9 km/h (3 Bft) 97,87 %
16.03.2019 08:20 8,1 C 7,8 C 7,2 C 98 % 1006,6 hPa 0,0 l/m 0 min 0 min 52 W/m 9,7 km/h (2 Bft) 100,00 %
16.03.2019 08:22 8,2 C 8,3 C 7,8 C 98 % 1006,5 hPa 0,0 l/m 0 min 0 min 45 W/m 9,7 km/h (2 Bft) 97,87 %
16.03.2019 08:24 8,3 C 8,3 C 7,8 C 98 % 1006,6 hPa 0,0 l/m 0 min 2 min 43 W/m 22,5 km/h (4 Bft) 100,00 %
16.03.2019 08:26 8,4 C 8,3 C 7,8 C 98 % 1006,6 hPa 0,0 l/m 0 min 0 min 40 W/m 22,5 km/h (4 Bft) 100,00 %
16.03.2019 08:28 8,6 C 8,3 C 7,8 C 98 % 1006,6 hPa 0,0 l/m 0 min 0 min 36 W/m 19,3 km/h (3 Bft) 100,00 %
16.03.2019 08:30 8,7 C 8,3 C 7,8 C 98 % 1006,5 hPa 0,0 l/m 0 min 0 min 41 W/m 16,1 km/h (3 Bft) 97,83 %
16.03.2019 08:32 8,7 C 8,3 C 7,8 C 98 % 1006,7 hPa 0,0 l/m 0 min 2 min 36 W/m 22,5 km/h (4 Bft) 93,62 %
16.03.2019 08:34 8,8 C 8,3 C 7,8 C 98 % 1006,5 hPa 0,0 l/m 0 min 2 min 37 W/m 22,5 km/h (4 Bft) 97,87 %
16.03.2019 08:36 8,9 C 8,9 C 7,8 C 99 % 1006,4 hPa 0,0 l/m 0 min 0 min 42 W/m 22,5 km/h (4 Bft) 98,31 %
16.03.2019 08:38 9,0 C 8,9 C 8,3 C 99 % 1006,5 hPa 0,0 l/m 0 min 0 min 36 W/m 25,7 km/h (4 Bft) 100,00 %
16.03.2019 08:40 9,1 C 8,9 C 7,8 C 99 % 1006,4 hPa 0,0 l/m 0 min 0 min 46 W/m 16,1 km/h (3 Bft) 100,00 %
16.03.2019 08:42 9,1 C 8,9 C 8,3 C 99 % 1006,4 hPa 0,0 l/m 0 min 0 min 48 W/m 25,7 km/h (4 Bft) 97,83 %
16.03.2019 08:44 9,1 C 8,9 C 8,3 C 99 % 1006,4 hPa 0,0 l/m 0 min 0 min 48 W/m 38,6 km/h (5 Bft) 97,87 %
16.03.2019 08:46 9,2 C 8,9 C 8,3 C 98 % 1006,4 hPa 0,0 l/m 0 min 0 min 63 W/m 19,3 km/h (3 Bft) 97,87 %
16.03.2019 08:48 9,2 C 8,9 C 8,3 C 98 % 1006,3 hPa 0,0 l/m 0 min 2 min 82 W/m 32,2 km/h (5 Bft) 100,00 %
16.03.2019 08:50 9,2 C 8,9 C 8,3 C 98 % 1006,4 hPa 0,0 l/m 0 min 0 min 94 W/m 22,5 km/h (4 Bft) 100,00 %
16.03.2019 08:52 9,2 C 8,9 C 8,3 C 98 % 1006,3 hPa 0,0 l/m 0 min 0 min 113 W/m 16,1 km/h (3 Bft) 93,62 %
16.03.2019 08:54 9,3 C 8,9 C 8,3 C 98 % 1006,2 hPa 0,0 l/m 0 min 0 min 119 W/m 22,5 km/h (4 Bft) 95,65 %
16.03.2019 08:56 9,3 C 9,4 C 8,3 C 99 % 1006,2 hPa 0,0 l/m 0 min 0 min 111 W/m 22,5 km/h (4 Bft) 97,87 %
16.03.2019 08:58 9,3 C 8,9 C 8,3 C 99 % 1006,3 hPa 0,0 l/m 0 min 0 min 102 W/m 16,1 km/h (3 Bft) 100,00 %
16.03.2019 09:00 9,3 C 8,9 C 8,3 C 99 % 1006,4 hPa 0,0 l/m 0 min 0 min 94 W/m 29,0 km/h (5 Bft) 100,00 %
16.03.2019 09:02 9,3 C 8,9 C 8,3 C 99 % 1006,4 hPa 0,0 l/m 0 min 0 min 77 W/m 32,2 km/h (5 Bft) 97,87 %
16.03.2019 09:04 9,4 C 8,9 C 8,3 C 99 % 1006,4 hPa 0,0 l/m 0 min 0 min 71 W/m 19,3 km/h (3 Bft) 97,87 %
16.03.2019 09:06 9,4 C 8,9 C 8,3 C 99 % 1006,5 hPa 0,0 l/m 0 min 0 min 73 W/m 41,8 km/h (6 Bft) 98,28 %
16.03.2019 09:08 9,4 C 8,9 C 8,3 C 98 % 1006,5 hPa 0,0 l/m 0 min 0 min 76 W/m 32,2 km/h (5 Bft) 97,14 %
16.03.2019 09:10 9,4 C 8,9 C 8,3 C 98 % 1006,4 hPa 0,0 l/m 0 min 0 min 75 W/m 22,5 km/h (4 Bft) 97,87 %
16.03.2019 09:12 9,4 C 8,9 C 8,3 C 98 % 1006,5 hPa 0,0 l/m 0 min 0 min 69 W/m 29,0 km/h (5 Bft) 97,87 %
16.03.2019 09:14 9,4 C 8,9 C 8,3 C 98 % 1006,5 hPa 0,0 l/m 0 min 0 min 77 W/m 19,3 km/h (3 Bft) 97,87 %
16.03.2019 09:16 9,4 C 8,9 C 8,3 C 98 % 1006,5 hPa 0,0 l/m 0 min 0 min 78 W/m 32,2 km/h (5 Bft) 95,74 %
16.03.2019 09:18 9,4 C 8,9 C 8,3 C 98 % 1006,6 hPa 0,0 l/m 0 min 0 min 68 W/m 32,2 km/h (5 Bft) 97,83 %
16.03.2019 09:20 9,4 C 8,9 C 8,3 C 98 % 1006,6 hPa 0,0 l/m 0 min 0 min 60 W/m 32,2 km/h (5 Bft) 97,87 %
16.03.2019 09:22 9,5 C 8,9 C 8,3 C 98 % 1006,6 hPa 0,0 l/m 0 min 0 min 49 W/m 25,7 km/h (4 Bft) 95,74 %
16.03.2019 09:24 9,5 C 8,9 C 8,3 C 98 % 1006,6 hPa 0,0 l/m 0 min 0 min 49 W/m 29,0 km/h (5 Bft) 93,62 %
16.03.2019 09:26 9,5 C 8,9 C 8,3 C 98 % 1006,6 hPa 0,0 l/m 0 min 0 min 54 W/m 38,6 km/h (5 Bft) 95,74 %
16.03.2019 09:28 9,5 C 8,9 C 8,3 C 98 % 1006,5 hPa 0,0 l/m 0 min 0 min 51 W/m 32,2 km/h (5 Bft) 95,74 %
16.03.2019 09:30 9,5 C 9,4 C 8,3 C 98 % 1006,6 hPa 0,0 l/m 0 min 0 min 53 W/m 16,1 km/h (3 Bft) 95,65 %
16.03.2019 09:32 9,5 C 9,4 C 8,3 C 98 % 1006,5 hPa 0,0 l/m 0 min 0 min 52 W/m 16,1 km/h (3 Bft) 95,92 %
16.03.2019 09:34 9,6 C 9,4 C 8,3 C 98 % 1006,6 hPa 0,0 l/m 0 min 2 min 55 W/m 16,1 km/h (3 Bft) 95,74 %
16.03.2019 09:36 9,6 C 9,4 C 8,3 C 97 % 1006,6 hPa 0,0 l/m 0 min 0 min 47 W/m 29,0 km/h (5 Bft) 95,74 %
16.03.2019 09:38 9,6 C 9,4 C 8,3 C 97 % 1006,7 hPa 0,0 l/m 0 min 0 min 48 W/m 16,1 km/h (3 Bft) 93,62 %
16.03.2019 09:40 9,6 C 9,4 C 8,3 C 97 % 1006,7 hPa 0,0 l/m 0 min 0 min 56 W/m 29,0 km/h (5 Bft) 95,74 %
16.03.2019 09:42 9,6 C 9,4 C 8,3 C 97 % 1006,7 hPa 0,0 l/m 0 min 0 min 59 W/m 12,9 km/h (3 Bft) 95,65 %
16.03.2019 09:44 9,6 C 9,4 C 8,3 C 97 % 1006,6 hPa 0,0 l/m 0 min 2 min 77 W/m 25,7 km/h (4 Bft) 95,74 %
16.03.2019 09:46 9,7 C 9,4 C 8,3 C 97 % 1006,6 hPa 0,0 l/m 0 min 2 min 95 W/m 19,3 km/h (3 Bft) 95,74 %
16.03.2019 09:48 9,7 C 9,4 C 8,3 C 97 % 1006,6 hPa 0,2 l/m 0 min 2 min 86 W/m 29,0 km/h (5 Bft) 95,74 %
16.03.2019 09:50 9,7 C 9,4 C 8,3 C 97 % 1006,6 hPa 0,0 l/m 0 min 2 min 90 W/m 35,4 km/h (5 Bft) 95,74 %
16.03.2019 09:52 9,7 C 9,4 C 8,3 C 96 % 1006,6 hPa 0,0 l/m 0 min 2 min 106 W/m 22,5 km/h (4 Bft) 95,65 %
16.03.2019 09:54 9,8 C 10,0 C 8,3 C 96 % 1006,5 hPa 0,0 l/m 0 min 2 min 130 W/m 16,1 km/h (3 Bft) 95,74 %
16.03.2019 09:56 9,8 C 10,0 C 8,3 C 96 % 1006,5 hPa 0,0 l/m 0 min 0 min 144 W/m 19,3 km/h (3 Bft) 95,74 %
16.03.2019 09:58 9,9 C 10,0 C 8,9 C 96 % 1006,4 hPa 0,0 l/m 0 min 0 min 144 W/m 22,5 km/h (4 Bft) 95,74 %
16.03.2019 10:00 9,9 C 10,6 C 8,9 C 96 % 1006,4 hPa 0,0 l/m 0 min 0 min 123 W/m 29,0 km/h (5 Bft) 97,87 %
16.03.2019 10:02 9,9 C 10,6 C 8,9 C 95 % 1006,5 hPa 0,0 l/m 0 min 0 min 128 W/m 29,0 km/h (5 Bft) 97,87 %
16.03.2019 10:04 10,0 C 10,6 C 8,9 C 95 % 1006,5 hPa 0,0 l/m 0 min 0 min 141 W/m 57,9 km/h (7 Bft) 100,00 %
16.03.2019 10:06 10,1 C 10,6 C 8,9 C 95 % 1006,3 hPa 0,0 l/m 0 min 0 min 150 W/m 22,5 km/h (4 Bft) 97,83 %
16.03.2019 10:08 10,1 C 10,6 C 8,9 C 95 % 1006,3 hPa 0,0 l/m 0 min 0 min 137 W/m 51,5 km/h (7 Bft) 100,00 %
16.03.2019 10:10 10,1 C 10,6 C 8,9 C 94 % 1006,2 hPa 0,0 l/m 0 min 0 min 136 W/m 38,6 km/h (5 Bft) 100,00 %
16.03.2019 10:12 10,2 C 10,0 C 8,9 C 94 % 1006,2 hPa 0,0 l/m 0 min 0 min 96 W/m 32,2 km/h (5 Bft) 100,00 %
16.03.2019 10:14 10,2 C 10,0 C 8,9 C 93 % 1006,1 hPa 0,0 l/m 0 min 0 min 94 W/m 22,5 km/h (4 Bft) 95,74 %
16.03.2019 10:16 10,2 C 10,0 C 8,9 C 93 % 1006,1 hPa 0,0 l/m 0 min 0 min 94 W/m 32,2 km/h (5 Bft) 93,48 %
16.03.2019 10:18 10,2 C 10,0 C 8,9 C 93 % 1006,1 hPa 0,0 l/m 0 min 0 min 107 W/m 29,0 km/h (5 Bft) 85,11 %
16.03.2019 10:20 10,2 C 10,0 C 8,9 C 92 % 1006,1 hPa 0,0 l/m 0 min 0 min 94 W/m 35,4 km/h (5 Bft) 97,87 %
16.03.2019 10:22 10,3 C 10,0 C 8,9 C 92 % 1006,2 hPa 0,0 l/m 0 min 2 min 86 W/m 41,8 km/h (6 Bft) 85,11 %
16.03.2019 10:24 10,3 C 10,0 C 8,9 C 92 % 1006,2 hPa 0,0 l/m 0 min 2 min 86 W/m 35,4 km/h (5 Bft) 93,62 %
16.03.2019 10:26 10,3 C 10,0 C 8,9 C 92 % 1006,1 hPa 0,0 l/m 0 min 0 min 75 W/m 29,0 km/h (5 Bft) 93,62 %
16.03.2019 10:28 10,3 C 10,0 C 8,9 C 91 % 1006,2 hPa 0,0 l/m 0 min 0 min 78 W/m 25,7 km/h (4 Bft) 95,65 %
16.03.2019 10:30 10,3 C 10,0 C 8,9 C 91 % 1006,2 hPa 0,0 l/m 0 min 0 min 74 W/m 16,1 km/h (3 Bft) 93,62 %
16.03.2019 10:32 10,3 C 10,0 C 9,4 C 91 % 1006,2 hPa 0,0 l/m 0 min 0 min 74 W/m 32,2 km/h (5 Bft) 93,62 %
16.03.2019 10:34 10,3 C 10,0 C 9,4 C 91 % 1006,2 hPa 0,0 l/m 0 min 0 min 114 W/m 29,0 km/h (5 Bft) 80,85 %
16.03.2019 10:36 10,3 C 10,6 C 10,0 C 91 % 1006,1 hPa 0,0 l/m 0 min 0 min 214 W/m 25,7 km/h (4 Bft) 85,11 %
16.03.2019 10:38 10,3 C 10,6 C 10,0 C 91 % 1006,2 hPa 0,0 l/m 0 min 0 min 235 W/m 19,3 km/h (3 Bft) 87,23 %
16.03.2019 10:40 10,4 C 11,1 C 10,0 C 91 % 1006,2 hPa 0,0 l/m 0 min 0 min 243 W/m 32,2 km/h (5 Bft) 78,26 %
16.03.2019 10:42 10,4 C 11,1 C 10,6 C 91 % 1006,2 hPa 0,0 l/m 0 min 0 min 228 W/m 25,7 km/h (4 Bft) 70,21 %
16.03.2019 10:44 10,5 C 11,1 C 10,0 C 91 % 1006,2 hPa 0,0 l/m 0 min 0 min 207 W/m 25,7 km/h (4 Bft) 85,11 %
16.03.2019 10:46 10,5 C 11,1 C 10,0 C 91 % 1006,2 hPa 0,0 l/m 0 min 0 min 185 W/m 25,7 km/h (4 Bft) 82,98 %
16.03.2019 10:48 10,6 C 10,6 C 10,0 C 91 % 1006,1 hPa 0,0 l/m 0 min 0 min 159 W/m 29,0 km/h (5 Bft) 80,85 %
16.03.2019 10:50 10,6 C 10,6 C 10,0 C 90 % 1006,3 hPa 0,0 l/m 0 min 0 min 143 W/m 25,7 km/h (4 Bft) 76,60 %
16.03.2019 10:52 10,6 C 10,6 C 10,0 C 90 % 1006,1 hPa 0,0 l/m 0 min 0 min 139 W/m 32,2 km/h (5 Bft) 86,96 %
16.03.2019 10:54 10,7 C 11,1 C 10,0 C 90 % 1006,2 hPa 0,0 l/m 0 min 0 min 133 W/m 29,0 km/h (5 Bft) 78,72 %
16.03.2019 10:56 10,7 C 11,1 C 10,0 C 90 % 1006,2 hPa 0,0 l/m 0 min 0 min 132 W/m 22,5 km/h (4 Bft) 82,98 %
16.03.2019 10:58 10,7 C 11,1 C 10,0 C 90 % 1006,1 hPa 0,0 l/m 0 min 0 min 144 W/m 35,4 km/h (5 Bft) 72,34 %
16.03.2019 11:00 10,7 C 11,1 C 10,6 C 90 % 1006,1 hPa 0,0 l/m 0 min 0 min 167 W/m 45,1 km/h (6 Bft) 91,49 %
16.03.2019 11:02 10,8 C 11,1 C 10,6 C 89 % 1006,0 hPa 0,0 l/m 0 min 0 min 178 W/m 35,4 km/h (5 Bft) 72,34 %
16.03.2019 11:04 10,8 C 11,1 C 10,6 C 89 % 1006,0 hPa 0,0 l/m 0 min 0 min 179 W/m 19,3 km/h (3 Bft) 78,26 %
16.03.2019 11:06 10,9 C 11,1 C 10,6 C 88 % 1005,9 hPa 0,0 l/m 0 min 0 min 172 W/m 61,2 km/h (7 Bft) 70,21 %
16.03.2019 11:08 10,9 C 11,1 C 10,6 C 87 % 1005,9 hPa 0,0 l/m 0 min 0 min 157 W/m 51,5 km/h (7 Bft) 91,67 %
16.03.2019 11:10 11,0 C 11,1 C 10,6 C 87 % 1005,9 hPa 0,0 l/m 0 min 0 min 162 W/m 22,5 km/h (4 Bft) 91,49 %
16.03.2019 11:12 11,0 C 11,1 C 10,6 C 87 % 1005,9 hPa 0,0 l/m 0 min 0 min 159 W/m 38,6 km/h (5 Bft) 85,11 %
16.03.2019 11:14 11,1 C 11,1 C 10,6 C 86 % 1005,9 hPa 0,0 l/m 0 min 0 min 140 W/m 22,5 km/h (4 Bft) 89,13 %
16.03.2019 11:16 11,1 C 11,1 C 10,6 C 86 % 1005,9 hPa 0,0 l/m 0 min 0 min 137 W/m 35,4 km/h (5 Bft) 87,23 %
16.03.2019 11:18 11,1 C 11,1 C 10,6 C 86 % 1005,8 hPa 0,0 l/m 0 min 0 min 146 W/m 57,9 km/h (7 Bft) 100,00 %
16.03.2019 11:20 11,2 C 11,1 C 10,6 C 85 % 1005,8 hPa 0,0 l/m 0 min 0 min 126 W/m 35,4 km/h (5 Bft) 97,87 %
16.03.2019 11:22 11,2 C 11,1 C 10,6 C 85 % 1005,9 hPa 0,0 l/m 0 min 0 min 106 W/m 32,2 km/h (5 Bft) 97,87 %
16.03.2019 11:24 11,2 C 11,1 C 10,6 C 85 % 1005,8 hPa 0,0 l/m 0 min 0 min 130 W/m 29,0 km/h (5 Bft) 100,00 %
16.03.2019 11:26 11,2 C 11,1 C 10,6 C 85 % 1005,8 hPa 0,0 l/m 0 min 0 min 132 W/m 19,3 km/h (3 Bft) 97,83 %
16.03.2019 11:28 11,2 C 11,1 C 10,6 C 85 % 1005,7 hPa 0,0 l/m 0 min 2 min 103 W/m 25,7 km/h (4 Bft) 100,00 %
16.03.2019 11:30 11,2 C 11,1 C 10,0 C 85 % 1005,8 hPa 0,0 l/m 0 min 2 min 99 W/m 29,0 km/h (5 Bft) 100,00 %
16.03.2019 11:32 11,2 C 11,1 C 10,6 C 85 % 1005,7 hPa 0,0 l/m 0 min 2 min 164 W/m 29,0 km/h (5 Bft) 100,00 %
16.03.2019 11:34 11,2 C 11,1 C 10,6 C 85 % 1005,7 hPa 0,0 l/m 0 min 0 min 199 W/m 25,7 km/h (4 Bft) 97,87 %
16.03.2019 11:36 11,2 C 11,7 C 11,1 C 85 % 1005,7 hPa 0,0 l/m 0 min 2 min 256 W/m 19,3 km/h (3 Bft) 97,87 %
16.03.2019 11:38 11,2 C 11,7 C 11,1 C 85 % 1005,8 hPa 0,0 l/m 0 min 0 min 239 W/m 16,1 km/h (3 Bft) 100,00 %
16.03.2019 11:40 11,2 C 11,7 C 10,6 C 85 % 1005,8 hPa 0,0 l/m 0 min 0 min 168 W/m 25,7 km/h (4 Bft) 95,74 %
16.03.2019 11:42 11,3 C 11,7 C 10,6 C 85 % 1005,8 hPa 0,0 l/m 0 min 0 min 150 W/m 16,1 km/h (3 Bft) 97,87 %
16.03.2019 11:44 11,3 C 11,1 C 10,6 C 85 % 1005,7 hPa 0,0 l/m 0 min 0 min 131 W/m 29,0 km/h (5 Bft) 97,87 %
16.03.2019 11:46 11,3 C 11,1 C 10,6 C 84 % 1005,8 hPa 0,0 l/m 0 min 0 min 114 W/m 29,0 km/h (5 Bft) 100,00 %
16.03.2019 11:48 11,3 C 11,1 C 10,6 C 84 % 1005,8 hPa 0,0 l/m 0 min 0 min 116 W/m 19,3 km/h (3 Bft) 97,87 %
16.03.2019 11:50 11,3 C 11,1 C 10,6 C 84 % 1005,8 hPa 0,0 l/m 0 min 0 min 165 W/m 25,7 km/h (4 Bft) 95,65 %
16.03.2019 11:52 11,3 C 11,7 C 11,1 C 84 % 1005,7 hPa 0,0 l/m 0 min 0 min 206 W/m 19,3 km/h (3 Bft) 95,74 %
16.03.2019 11:54 11,3 C 11,7 C 11,1 C 84 % 1005,7 hPa 0,0 l/m 0 min 0 min 239 W/m 25,7 km/h (4 Bft) 93,62 %
16.03.2019 11:56 11,3 C 11,7 C 11,1 C 83 % 1005,7 hPa 0,0 l/m 0 min 0 min 222 W/m 25,7 km/h (4 Bft) 93,62 %
16.03.2019 11:58 11,3 C 11,7 C 10,6 C 83 % 1005,7 hPa 0,0 l/m 0 min 0 min 124 W/m 29,0 km/h (5 Bft) 93,62 %
16.03.2019 12:00 11,3 C 11,1 C 10,6 C 83 % 1005,7 hPa 0,0 l/m 0 min 0 min 91 W/m 22,5 km/h (4 Bft) 89,36 %
16.03.2019 12:02 11,3 C 11,1 C 10,6 C 83 % 1005,7 hPa 0,0 l/m 0 min 0 min 82 W/m 32,2 km/h (5 Bft) 91,30 %
16.03.2019 12:04 11,3 C 11,1 C 10,6 C 82 % 1005,6 hPa 0,0 l/m 0 min 0 min 70 W/m 35,4 km/h (5 Bft) 91,49 %
16.03.2019 12:07 11,3 C 11,1 C 10,0 C 82 % 1005,7 hPa 0,0 l/m 0 min 0 min 81 W/m 41,8 km/h (6 Bft) 92,96 %
16.03.2019 12:08 11,3 C 11,1 C 10,6 C 82 % 1005,7 hPa 0,0 l/m 0 min 0 min 111 W/m 29,0 km/h (5 Bft) 95,83 %
16.03.2019 12:10 11,2 C 11,1 C 10,6 C 82 % 1005,7 hPa 0,0 l/m 0 min 0 min 107 W/m 22,5 km/h (4 Bft) 95,74 %
16.03.2019 12:12 11,2 C 11,1 C 10,6 C 83 % 1005,7 hPa 0,0 l/m 0 min 0 min 90 W/m 45,1 km/h (6 Bft) 97,83 %
16.03.2019 12:14 11,3 C 11,1 C 10,6 C 83 % 1005,7 hPa 0,0 l/m 0 min 0 min 79 W/m 22,5 km/h (4 Bft) 93,62 %
16.03.2019 12:16 11,2 C 11,1 C 10,6 C 83 % 1005,8 hPa 0,0 l/m 0 min 0 min 84 W/m 32,2 km/h (5 Bft) 95,74 %
16.03.2019 12:18 11,2 C 11,1 C 10,6 C 83 % 1005,8 hPa 0,0 l/m 0 min 0 min 108 W/m 32,2 km/h (5 Bft) 95,74 %
16.03.2019 12:20 11,2 C 11,1 C 10,6 C 83 % 1005,7 hPa 0,0 l/m 0 min 0 min 113 W/m 22,5 km/h (4 Bft) 95,74 %
16.03.2019 12:22 11,2 C 11,1 C 10,6 C 82 % 1005,8 hPa 0,0 l/m 0 min 0 min 94 W/m 19,3 km/h (3 Bft) 95,74 %
16.03.2019 12:24 11,2 C 11,1 C 10,6 C 83 % 1005,7 hPa 0,0 l/m 0 min 0 min 91 W/m 16,1 km/h (3 Bft) 95,65 %
16.03.2019 12:26 11,2 C 11,1 C 10,6 C 83 % 1005,7 hPa 0,0 l/m 0 min 0 min 81 W/m 29,0 km/h (5 Bft) 95,74 %
16.03.2019 12:28 11,2 C 11,1 C 10,6 C 82 % 1005,7 hPa 0,0 l/m 0 min 0 min 76 W/m 19,3 km/h (3 Bft) 97,87 %
16.03.2019 12:30 11,2 C 11,1 C 10,6 C 82 % 1005,6 hPa 0,0 l/m 0 min 0 min 73 W/m 38,6 km/h (5 Bft) 95,74 %
16.03.2019 12:32 11,2 C 11,1 C 10,6 C 82 % 1005,7 hPa 0,0 l/m 0 min 0 min 76 W/m 41,8 km/h (6 Bft) 95,74 %
16.03.2019 12:34 11,2 C 11,1 C 10,6 C 82 % 1005,7 hPa 0,0 l/m 0 min 0 min 77 W/m 16,1 km/h (3 Bft) 97,87 %
16.03.2019 12:36 11,2 C 11,1 C 10,6 C 82 % 1005,8 hPa 0,0 l/m 0 min 0 min 87 W/m 25,7 km/h (4 Bft) 97,87 %
16.03.2019 12:38 11,2 C 11,1 C 10,6 C 82 % 1005,6 hPa 0,0 l/m 0 min 0 min 93 W/m 38,6 km/h (5 Bft) 93,62 %
16.03.2019 12:40 11,2 C 10,6 C 10,6 C 82 % 1005,6 hPa 0,0 l/m 0 min 0 min 82 W/m 35,4 km/h (5 Bft) 97,87 %
16.03.2019 12:42 11,2 C 10,6 C 10,6 C 82 % 1005,6 hPa 0,0 l/m 0 min 0 min 86 W/m 29,0 km/h (5 Bft) 97,87 %
16.03.2019 12:44 11,2 C 10,6 C 10,6 C 82 % 1005,6 hPa 0,0 l/m 0 min 0 min 88 W/m 32,2 km/h (5 Bft) 97,87 %
16.03.2019 12:46 11,1 C 11,1 C 10,6 C 82 % 1005,6 hPa 0,0 l/m 0 min 0 min 109 W/m 25,7 km/h (4 Bft) 97,83 %
16.03.2019 12:48 11,2 C 11,1 C 10,6 C 82 % 1005,6 hPa 0,0 l/m 0 min 0 min 130 W/m 22,5 km/h (4 Bft) 97,87 %
16.03.2019 12:50 11,1 C 11,1 C 10,6 C 82 % 1005,6 hPa 0,0 l/m 0 min 0 min 106 W/m 32,2 km/h (5 Bft) 97,87 %
16.03.2019 12:52 11,1 C 11,1 C 10,6 C 82 % 1005,6 hPa 0,0 l/m 0 min 0 min 95 W/m 38,6 km/h (5 Bft) 97,87 %
16.03.2019 12:54 11,1 C 11,1 C 10,6 C 82 % 1005,6 hPa 0,0 l/m 0 min 0 min 90 W/m 29,0 km/h (5 Bft) 95,74 %
16.03.2019 12:56 11,1 C 11,1 C 10,6 C 82 % 1005,6 hPa 0,0 l/m 0 min 0 min 90 W/m 25,7 km/h (4 Bft) 97,87 %
16.03.2019 12:58 11,1 C 11,1 C 10,6 C 82 % 1005,6 hPa 0,0 l/m 0 min 0 min 89 W/m 12,9 km/h (3 Bft) 95,65 %
16.03.2019 13:00 11,1 C 10,6 C 10,6 C 82 % 1005,5 hPa 0,0 l/m 0 min 0 min 78 W/m 29,0 km/h (5 Bft) 97,87 %
16.03.2019 13:02 11,1 C 10,6 C 10,0 C 82 % 1005,6 hPa 0,0 l/m 0 min 0 min 68 W/m 25,7 km/h (4 Bft) 95,74 %
16.03.2019 13:04 11,1 C 10,6 C 10,0 C 82 % 1005,6 hPa 0,0 l/m 0 min 0 min 70 W/m 32,2 km/h (5 Bft) 97,87 %
16.03.2019 13:06 11,1 C 10,6 C 10,0 C 82 % 1005,6 hPa 0,0 l/m 0 min 0 min 66 W/m 32,2 km/h (5 Bft) 97,87 %
16.03.2019 13:08 11,1 C 10,6 C 10,0 C 82 % 1005,6 hPa 0,0 l/m 0 min 0 min 73 W/m 35,4 km/h (5 Bft) 97,83 %
16.03.2019 13:10 11,1 C 10,6 C 10,0 C 82 % 1005,6 hPa 0,0 l/m 0 min 0 min 68 W/m 25,7 km/h (4 Bft) 95,74 %
16.03.2019 13:12 11,1 C 10,6 C 10,0 C 82 % 1005,6 hPa 0,0 l/m 0 min 0 min 60 W/m 19,3 km/h (3 Bft) 97,87 %
16.03.2019 13:14 11,1 C 10,6 C 10,0 C 82 % 1005,5 hPa 0,0 l/m 0 min 0 min 54 W/m 22,5 km/h (4 Bft) 97,87 %
16.03.2019 13:16 11,1 C 10,6 C 10,0 C 82 % 1005,6 hPa 0,0 l/m 0 min 0 min 53 W/m 19,3 km/h (3 Bft) 97,87 %
16.03.2019 13:18 11,1 C 10,6 C 10,0 C 82 % 1005,6 hPa 0,0 l/m 0 min 0 min 54 W/m 12,9 km/h (3 Bft) 97,87 %
16.03.2019 13:20 11,1 C 10,6 C 10,0 C 83 % 1005,6 hPa 0,0 l/m 0 min 0 min 57 W/m 22,5 km/h (4 Bft) 100,00 %
16.03.2019 13:22 11,1 C 10,6 C 10,0 C 83 % 1005,5 hPa 0,0 l/m 0 min 0 min 66 W/m 41,8 km/h (6 Bft) 98,00 %
16.03.2019 13:24 11,1 C 10,6 C 10,0 C 83 % 1005,5 hPa 0,0 l/m 0 min 0 min 96 W/m 45,1 km/h (6 Bft) 95,74 %
16.03.2019 13:26 11,1 C 10,6 C 10,0 C 83 % 1005,5 hPa 0,0 l/m 0 min 0 min 86 W/m 29,0 km/h (5 Bft) 97,87 %
16.03.2019 13:28 11,1 C 10,6 C 10,0 C 83 % 1005,5 hPa 0,0 l/m 0 min 0 min 90 W/m 16,1 km/h (3 Bft) 97,14 %
16.03.2019 13:30 11,1 C 10,6 C 10,0 C 83 % 1005,5 hPa 0,0 l/m 0 min 0 min 93 W/m 25,7 km/h (4 Bft) 97,87 %
16.03.2019 13:32 11,0 C 10,6 C 10,0 C 83 % 1005,5 hPa 0,0 l/m 0 min 0 min 75 W/m 16,1 km/h (3 Bft) 97,87 %
16.03.2019 13:34 11,0 C 10,6 C 10,0 C 83 % 1005,5 hPa 0,0 l/m 0 min 0 min 72 W/m 29,0 km/h (5 Bft) 97,83 %
16.03.2019 13:36 11,0 C 10,6 C 10,0 C 83 % 1005,4 hPa 0,0 l/m 0 min 0 min 73 W/m 29,0 km/h (5 Bft) 96,61 %
16.03.2019 13:38 11,0 C 10,6 C 10,0 C 83 % 1005,4 hPa 0,0 l/m 0 min 0 min 57 W/m 25,7 km/h (4 Bft) 100,00 %
16.03.2019 13:40 10,9 C 10,6 C 10,0 C 83 % 1005,4 hPa 0,0 l/m 0 min 0 min 54 W/m 35,4 km/h (5 Bft) 97,87 %
16.03.2019 13:42 10,9 C 10,6 C 10,0 C 83 % 1005,5 hPa 0,0 l/m 0 min 0 min 57 W/m 41,8 km/h (6 Bft) 97,87 %
16.03.2019 13:44 10,9 C 10,6 C 10,0 C 83 % 1005,3 hPa 0,0 l/m 0 min 0 min 58 W/m 32,2 km/h (5 Bft) 100,00 %
16.03.2019 13:46 10,9 C 10,6 C 10,0 C 83 % 1005,2 hPa 0,0 l/m 0 min 0 min 72 W/m 25,7 km/h (4 Bft) 97,83 %
16.03.2019 13:48 10,9 C 10,6 C 10,0 C 82 % 1005,3 hPa 0,0 l/m 0 min 0 min 70 W/m 22,5 km/h (4 Bft) 95,74 %
16.03.2019 13:50 10,9 C 10,6 C 10,0 C 82 % 1005,3 hPa 0,0 l/m 0 min 0 min 66 W/m 22,5 km/h (4 Bft) 97,87 %
16.03.2019 13:52 10,9 C 10,6 C 10,0 C 83 % 1005,2 hPa 0,0 l/m 0 min 0 min 61 W/m 19,3 km/h (3 Bft) 95,74 %
16.03.2019 13:54 10,9 C 10,6 C 10,0 C 83 % 1005,2 hPa 0,0 l/m 0 min 0 min 56 W/m 32,2 km/h (5 Bft) 97,87 %
16.03.2019 13:56 10,9 C 10,6 C 10,0 C 83 % 1005,2 hPa 0,0 l/m 0 min 0 min 57 W/m 22,5 km/h (4 Bft) 97,87 %
16.03.2019 13:58 10,9 C 10,6 C 10,0 C 82 % 1005,4 hPa 0,0 l/m 0 min 0 min 61 W/m 41,8 km/h (6 Bft) 97,83 %
16.03.2019 14:00 10,9 C 10,6 C 10,0 C 82 % 1005,2 hPa 0,0 l/m 0 min 0 min 62 W/m 22,5 km/h (4 Bft) 95,74 %
16.03.2019 14:02 10,9 C 10,6 C 10,0 C 82 % 1005,1 hPa 0,0 l/m 0 min 0 min 78 W/m 51,5 km/h (7 Bft) 93,62 %
16.03.2019 14:04 10,9 C 10,6 C 10,0 C 82 % 1005,1 hPa 0,0 l/m 0 min 0 min 94 W/m 41,8 km/h (6 Bft) 97,87 %
16.03.2019 14:06 11,0 C 10,6 C 10,0 C 82 % 1005,1 hPa 0,0 l/m 0 min 0 min 79 W/m 25,7 km/h (4 Bft) 98,28 %
16.03.2019 14:08 11,0 C 10,6 C 10,0 C 82 % 1005,1 hPa 0,0 l/m 0 min 0 min 88 W/m 19,3 km/h (3 Bft) 97,22 %
16.03.2019 14:10 11,0 C 11,1 C 10,6 C 82 % 1005,1 hPa 0,0 l/m 0 min 0 min 107 W/m 41,8 km/h (6 Bft) 97,83 %
16.03.2019 14:12 11,0 C 11,1 C 10,6 C 82 % 1005,0 hPa 0,0 l/m 0 min 0 min 92 W/m 22,5 km/h (4 Bft) 93,62 %
16.03.2019 14:14 11,0 C 10,6 C 10,0 C 82 % 1004,9 hPa 0,0 l/m 0 min 0 min 72 W/m 19,3 km/h (3 Bft) 95,74 %
16.03.2019 14:16 11,0 C 10,6 C 10,0 C 81 % 1005,0 hPa 0,0 l/m 0 min 0 min 72 W/m 32,2 km/h (5 Bft) 95,74 %
16.03.2019 14:18 11,1 C 10,6 C 10,0 C 81 % 1005,0 hPa 0,0 l/m 0 min 0 min 71 W/m 29,0 km/h (5 Bft) 95,74 %
16.03.2019 14:20 11,1 C 10,6 C 10,0 C 81 % 1004,9 hPa 0,0 l/m 0 min 0 min 67 W/m 25,7 km/h (4 Bft) 97,87 %
16.03.2019 14:22 11,1 C 10,6 C 10,0 C 81 % 1005,0 hPa 0,0 l/m 0 min 0 min 65 W/m 29,0 km/h (5 Bft) 95,65 %
16.03.2019 14:24 11,1 C 10,6 C 10,0 C 81 % 1004,9 hPa 0,0 l/m 0 min 0 min 64 W/m 32,2 km/h (5 Bft) 97,87 %
16.03.2019 14:26 11,1 C 10,6 C 10,0 C 80 % 1005,0 hPa 0,0 l/m 0 min 0 min 61 W/m 25,7 km/h (4 Bft) 97,87 %
16.03.2019 14:28 11,1 C 10,6 C 10,0 C 80 % 1005,0 hPa 0,0 l/m 0 min 0 min 59 W/m 29,0 km/h (5 Bft) 97,87 %
16.03.2019 14:30 11,1 C 10,6 C 10,0 C 80 % 1004,8 hPa 0,0 l/m 0 min 0 min 54 W/m 51,5 km/h (7 Bft) 97,87 %
16.03.2019 14:32 11,1 C 10,6 C 10,0 C 79 % 1004,9 hPa 0,0 l/m 0 min 0 min 53 W/m 48,3 km/h (6 Bft) 95,74 %
16.03.2019 14:34 11,1 C 10,6 C 10,0 C 79 % 1005,0 hPa 0,0 l/m 0 min 0 min 61 W/m 32,2 km/h (5 Bft) 97,83 %
16.03.2019 14:36 11,2 C 11,1 C 10,6 C 79 % 1004,9 hPa 0,0 l/m 0 min 0 min 83 W/m 29,0 km/h (5 Bft) 96,61 %
16.03.2019 14:38 11,2 C 11,1 C 10,6 C 79 % 1004,9 hPa 0,0 l/m 0 min 0 min 116 W/m 29,0 km/h (5 Bft) 97,14 %
16.03.2019 14:40 11,2 C 11,1 C 10,6 C 79 % 1004,9 hPa 0,0 l/m 0 min 0 min 90 W/m 25,7 km/h (4 Bft) 97,87 %
16.03.2019 14:42 11,2 C 11,1 C 10,6 C 79 % 1004,9 hPa 0,0 l/m 0 min 0 min 67 W/m 22,5 km/h (4 Bft) 97,87 %
16.03.2019 14:44 11,2 C 10,6 C 10,6 C 79 % 1004,9 hPa 0,0 l/m 0 min 0 min 50 W/m 25,7 km/h (4 Bft) 97,83 %
16.03.2019 14:46 11,2 C 10,6 C 10,0 C 78 % 1004,9 hPa 0,0 l/m 0 min 0 min 44 W/m 25,7 km/h (4 Bft) 97,87 %
16.03.2019 14:48 11,2 C 10,6 C 10,0 C 79 % 1004,9 hPa 0,0 l/m 0 min 0 min 44 W/m 25,7 km/h (4 Bft) 97,87 %
16.03.2019 14:50 11,2 C 10,6 C 10,0 C 79 % 1004,9 hPa 0,0 l/m 0 min 0 min 45 W/m 25,7 km/h (4 Bft) 97,87 %
16.03.2019 14:52 11,2 C 10,6 C 10,0 C 79 % 1004,8 hPa 0,0 l/m 0 min 0 min 46 W/m 12,9 km/h (3 Bft) 93,62 %
16.03.2019 14:54 11,2 C 10,6 C 10,0 C 79 % 1004,9 hPa 0,0 l/m 0 min 0 min 37 W/m 22,5 km/h (4 Bft) 97,87 %
16.03.2019 14:56 11,2 C 10,6 C 10,0 C 79 % 1004,9 hPa 0,0 l/m 0 min 0 min 32 W/m 12,9 km/h (3 Bft) 100,00 %
16.03.2019 14:58 11,2 C 10,6 C 10,0 C 79 % 1004,9 hPa 0,0 l/m 0 min 0 min 41 W/m 32,2 km/h (5 Bft) 100,00 %
16.03.2019 15:00 11,2 C 10,6 C 10,0 C 80 % 1004,7 hPa 0,0 l/m 0 min 0 min 61 W/m 32,2 km/h (5 Bft) 100,00 %
16.03.2019 15:02 11,2 C 10,6 C 10,0 C 80 % 1004,7 hPa 0,0 l/m 0 min 0 min 62 W/m 25,7 km/h (4 Bft) 95,74 %
16.03.2019 15:04 11,2 C 10,6 C 10,0 C 80 % 1004,7 hPa 0,0 l/m 0 min 0 min 70 W/m 45,1 km/h (6 Bft) 100,00 %
16.03.2019 15:06 11,1 C 10,6 C 10,0 C 80 % 1004,7 hPa 0,0 l/m 0 min 0 min 63 W/m 45,1 km/h (6 Bft) 100,00 %
16.03.2019 15:08 11,1 C 10,6 C 10,0 C 80 % 1004,7 hPa 0,0 l/m 0 min 0 min 61 W/m 38,6 km/h (5 Bft) 100,00 %
16.03.2019 15:10 11,1 C 10,6 C 10,0 C 80 % 1004,6 hPa 0,0 l/m 0 min 0 min 62 W/m 22,5 km/h (4 Bft) 97,87 %
16.03.2019 15:12 11,1 C 10,6 C 10,0 C 81 % 1004,6 hPa 0,0 l/m 0 min 0 min 58 W/m 25,7 km/h (4 Bft) 100,00 %
16.03.2019 15:14 11,1 C 10,6 C 10,0 C 80 % 1004,6 hPa 0,0 l/m 0 min 0 min 58 W/m 29,0 km/h (5 Bft) 100,00 %
16.03.2019 15:16 11,1 C 10,6 C 10,0 C 80 % 1004,6 hPa 0,0 l/m 0 min 0 min 66 W/m 25,7 km/h (4 Bft) 100,00 %
16.03.2019 15:18 11,1 C 10,6 C 10,0 C 80 % 1004,6 hPa 0,0 l/m 0 min 0 min 73 W/m 45,1 km/h (6 Bft) 95,74 %
16.03.2019 15:20 11,1 C 10,6 C 10,0 C 80 % 1004,6 hPa 0,0 l/m 0 min 0 min 71 W/m 25,7 km/h (4 Bft) 100,00 %
16.03.2019 15:22 11,1 C 10,6 C 10,0 C 80 % 1004,6 hPa 0,0 l/m 0 min 0 min 78 W/m 35,4 km/h (5 Bft) 97,87 %
16.03.2019 15:24 11,1 C 10,6 C 10,0 C 80 % 1004,6 hPa 0,0 l/m 0 min 0 min 90 W/m 22,5 km/h (4 Bft) 100,00 %
16.03.2019 15:26 11,1 C 10,6 C 10,0 C 80 % 1004,6 hPa 0,0 l/m 0 min 0 min 83 W/m 19,3 km/h (3 Bft) 100,00 %
16.03.2019 15:28 11,1 C 10,6 C 10,0 C 80 % 1004,6 hPa 0,0 l/m 0 min 0 min 52 W/m 19,3 km/h (3 Bft) 100,00 %
16.03.2019 15:30 11,1 C 10,6 C 10,0 C 80 % 1004,6 hPa 0,0 l/m 0 min 0 min 35 W/m 16,1 km/h (3 Bft) 97,87 %
16.03.2019 15:32 11,1 C 10,6 C 10,0 C 80 % 1004,5 hPa 0,0 l/m 0 min 0 min 31 W/m 19,3 km/h (3 Bft) 100,00 %
16.03.2019 15:34 11,1 C 10,6 C 10,0 C 80 % 1004,6 hPa 0,0 l/m 0 min 0 min 27 W/m 25,7 km/h (4 Bft) 100,00 %
16.03.2019 15:36 11,1 C 10,6 C 10,0 C 80 % 1004,6 hPa 0,0 l/m 0 min 0 min 35 W/m 41,8 km/h (6 Bft) 93,22 %
16.03.2019 15:38 11,0 C 10,6 C 10,0 C 80 % 1004,6 hPa 0,0 l/m 0 min 0 min 52 W/m 25,7 km/h (4 Bft) 100,00 %
16.03.2019 15:40 11,0 C 10,6 C 10,0 C 80 % 1004,6 hPa 0,0 l/m 0 min 0 min 79 W/m 19,3 km/h (3 Bft) 97,87 %
16.03.2019 15:42 11,1 C 10,6 C 10,0 C 80 % 1004,6 hPa 0,0 l/m 0 min 0 min 103 W/m 25,7 km/h (4 Bft) 97,87 %
16.03.2019 15:44 11,0 C 10,6 C 10,0 C 80 % 1004,5 hPa 0,0 l/m 0 min 0 min 95 W/m 19,3 km/h (3 Bft) 97,83 %
16.03.2019 15:46 11,1 C 10,6 C 10,0 C 80 % 1004,5 hPa 0,0 l/m 0 min 0 min 76 W/m 22,5 km/h (4 Bft) 97,87 %
16.03.2019 15:48 11,1 C 10,6 C 10,0 C 80 % 1004,4 hPa 0,0 l/m 0 min 0 min 71 W/m 29,0 km/h (5 Bft) 97,87 %
16.03.2019 15:50 11,1 C 10,6 C 10,0 C 80 % 1004,4 hPa 0,0 l/m 0 min 0 min 59 W/m 25,7 km/h (4 Bft) 97,87 %
16.03.2019 15:52 11,1 C 10,6 C 10,0 C 80 % 1004,5 hPa 0,0 l/m 0 min 0 min 47 W/m 29,0 km/h (5 Bft) 97,87 %
16.03.2019 15:54 11,1 C 10,6 C 10,0 C 79 % 1004,4 hPa 0,0 l/m 0 min 0 min 37 W/m 25,7 km/h (4 Bft) 97,87 %
16.03.2019 15:56 11,1 C 10,6 C 10,0 C 80 % 1004,3 hPa 0,0 l/m 0 min 0 min 36 W/m 16,1 km/h (3 Bft) 93,48 %
16.03.2019 15:58 11,1 C 10,6 C 10,0 C 80 % 1004,2 hPa 0,0 l/m 0 min 0 min 32 W/m 19,3 km/h (3 Bft) 97,87 %
16.03.2019 16:00 11,1 C 10,6 C 10,0 C 80 % 1004,2 hPa 0,0 l/m 0 min 0 min 28 W/m 22,5 km/h (4 Bft) 97,87 %
16.03.2019 16:02 11,1 C 10,6 C 10,0 C 80 % 1004,2 hPa 0,0 l/m 0 min 0 min 39 W/m 29,0 km/h (5 Bft) 95,74 %
16.03.2019 16:04 11,0 C 10,6 C 10,0 C 79 % 1004,3 hPa 0,0 l/m 0 min 0 min 37 W/m 22,5 km/h (4 Bft) 97,87 %
16.03.2019 16:06 11,0 C 10,6 C 10,0 C 79 % 1004,0 hPa 0,0 l/m 0 min 0 min 38 W/m 19,3 km/h (3 Bft) 97,83 %
16.03.2019 16:08 11,0 C 10,6 C 10,0 C 79 % 1004,0 hPa 0,0 l/m 0 min 0 min 51 W/m 22,5 km/h (4 Bft) 97,87 %
16.03.2019 16:10 11,0 C 10,6 C 10,0 C 79 % 1004,1 hPa 0,0 l/m 0 min 0 min 70 W/m 25,7 km/h (4 Bft) 97,87 %
16.03.2019 16:12 11,0 C 10,6 C 10,0 C 79 % 1004,0 hPa 0,0 l/m 0 min 0 min 66 W/m 38,6 km/h (5 Bft) 97,87 %
16.03.2019 16:14 11,0 C 10,6 C 10,0 C 79 % 1003,9 hPa 0,0 l/m 0 min 0 min 67 W/m 41,8 km/h (6 Bft) 97,87 %
16.03.2019 16:16 11,0 C 10,6 C 10,0 C 79 % 1003,9 hPa 0,0 l/m 0 min 0 min 89 W/m 22,5 km/h (4 Bft) 97,87 %
16.03.2019 16:18 11,1 C 10,6 C 10,0 C 79 % 1003,9 hPa 0,0 l/m 0 min 0 min 75 W/m 25,7 km/h (4 Bft) 97,83 %
16.03.2019 16:20 11,1 C 10,6 C 10,0 C 78 % 1003,9 hPa 0,0 l/m 0 min 0 min 56 W/m 35,4 km/h (5 Bft) 97,87 %
16.03.2019 16:22 11,1 C 10,6 C 10,0 C 78 % 1003,8 hPa 0,0 l/m 0 min 0 min 65 W/m 25,7 km/h (4 Bft) 97,87 %
16.03.2019 16:24 11,1 C 11,1 C 10,0 C 78 % 1003,8 hPa 0,0 l/m 0 min 0 min 78 W/m 22,5 km/h (4 Bft) 97,87 %
16.03.2019 16:26 11,1 C 11,1 C 10,6 C 78 % 1003,8 hPa 0,0 l/m 0 min 0 min 84 W/m 16,1 km/h (3 Bft) 97,87 %
16.03.2019 16:28 11,1 C 11,1 C 10,0 C 78 % 1003,8 hPa 0,0 l/m 0 min 0 min 77 W/m 29,0 km/h (5 Bft) 97,87 %
16.03.2019 16:30 11,1 C 10,6 C 10,0 C 78 % 1003,7 hPa 0,0 l/m 0 min 0 min 62 W/m 16,1 km/h (3 Bft) 97,83 %
16.03.2019 16:32 11,1 C 10,6 C 10,0 C 78 % 1003,6 hPa 0,0 l/m 0 min 0 min 49 W/m 25,7 km/h (4 Bft) 95,74 %
16.03.2019 16:34 11,1 C 10,6 C 10,0 C 77 % 1003,6 hPa 0,0 l/m 0 min 0 min 45 W/m 22,5 km/h (4 Bft) 97,87 %
16.03.2019 16:36 11,1 C 10,6 C 10,0 C 77 % 1003,5 hPa 0,0 l/m 0 min 0 min 53 W/m 29,0 km/h (5 Bft) 97,87 %
16.03.2019 16:38 11,1 C 10,6 C 10,0 C 77 % 1003,6 hPa 0,0 l/m 0 min 0 min 54 W/m 35,4 km/h (5 Bft) 97,87 %
16.03.2019 16:40 11,2 C 10,6 C 10,0 C 77 % 1003,5 hPa 0,0 l/m 0 min 0 min 57 W/m 38,6 km/h (5 Bft) 100,00 %
16.03.2019 16:42 11,2 C 11,1 C 10,0 C 77 % 1003,5 hPa 0,0 l/m 0 min 0 min 57 W/m 32,2 km/h (5 Bft) 97,83 %
16.03.2019 16:44 11,2 C 10,6 C 10,0 C 77 % 1003,5 hPa 0,0 l/m 0 min 0 min 57 W/m 32,2 km/h (5 Bft) 97,87 %
16.03.2019 16:46 11,2 C 11,1 C 10,6 C 77 % 1003,5 hPa 0,0 l/m 0 min 0 min 68 W/m 25,7 km/h (4 Bft) 95,74 %
16.03.2019 16:48 11,2 C 11,1 C 10,6 C 77 % 1003,4 hPa 0,0 l/m 0 min 0 min 75 W/m 32,2 km/h (5 Bft) 95,74 %
16.03.2019 16:50 11,2 C 11,1 C 10,6 C 77 % 1003,5 hPa 0,0 l/m 0 min 0 min 67 W/m 25,7 km/h (4 Bft) 95,74 %
16.03.2019 16:52 11,2 C 11,1 C 10,0 C 77 % 1003,4 hPa 0,0 l/m 0 min 0 min 60 W/m 29,0 km/h (5 Bft) 89,13 %
16.03.2019 16:54 11,2 C 11,1 C 10,6 C 77 % 1003,3 hPa 0,0 l/m 0 min 0 min 61 W/m 35,4 km/h (5 Bft) 95,74 %
16.03.2019 16:56 11,2 C 11,1 C 10,6 C 77 % 1003,3 hPa 0,0 l/m 0 min 0 min 64 W/m 22,5 km/h (4 Bft) 91,49 %
16.03.2019 16:58 11,2 C 11,1 C 10,6 C 77 % 1003,3 hPa 0,0 l/m 0 min 0 min 60 W/m 32,2 km/h (5 Bft) 95,74 %
16.03.2019 17:00 11,3 C 11,1 C 10,6 C 77 % 1003,1 hPa 0,0 l/m 0 min 0 min 60 W/m 19,3 km/h (3 Bft) 95,74 %
16.03.2019 17:02 11,2 C 11,1 C 10,6 C 77 % 1003,2 hPa 0,0 l/m 0 min 0 min 53 W/m 22,5 km/h (4 Bft) 93,62 %
16.03.2019 17:04 11,3 C 11,1 C 10,6 C 77 % 1003,1 hPa 0,0 l/m 0 min 0 min 59 W/m 25,7 km/h (4 Bft) 95,74 %
16.03.2019 17:06 11,3 C 10,6 C 10,0 C 77 % 1003,1 hPa 0,0 l/m 0 min 0 min 48 W/m 35,4 km/h (5 Bft) 95,65 %
16.03.2019 17:08 11,3 C 10,6 C 10,0 C 77 % 1003,0 hPa 0,0 l/m 0 min 0 min 40 W/m 29,0 km/h (5 Bft) 95,74 %
16.03.2019 17:10 11,3 C 10,6 C 10,0 C 77 % 1003,1 hPa 0,0 l/m 0 min 0 min 33 W/m 22,5 km/h (4 Bft) 91,49 %
16.03.2019 17:12 11,3 C 10,6 C 10,0 C 77 % 1003,0 hPa 0,0 l/m 0 min 0 min 36 W/m 32,2 km/h (5 Bft) 95,74 %
16.03.2019 17:14 11,3 C 10,6 C 10,0 C 77 % 1003,0 hPa 0,0 l/m 0 min 0 min 46 W/m 29,0 km/h (5 Bft) 95,74 %
16.03.2019 17:16 11,3 C 10,6 C 10,0 C 77 % 1003,0 hPa 0,0 l/m 0 min 0 min 39 W/m 35,4 km/h (5 Bft) 95,65 %
16.03.2019 17:18 11,2 C 10,6 C 10,0 C 77 % 1003,0 hPa 0,0 l/m 0 min 0 min 34 W/m 35,4 km/h (5 Bft) 95,74 %
16.03.2019 17:20 11,2 C 10,6 C 10,0 C 77 % 1003,0 hPa 0,0 l/m 0 min 0 min 26 W/m 25,7 km/h (4 Bft) 95,74 %
16.03.2019 17:22 11,2 C 10,6 C 10,0 C 77 % 1002,9 hPa 0,0 l/m 0 min 0 min 37 W/m 25,7 km/h (4 Bft) 95,74 %
16.03.2019 17:24 11,2 C 10,6 C 10,0 C 78 % 1002,9 hPa 0,0 l/m 0 min 0 min 37 W/m 25,7 km/h (4 Bft) 95,74 %
16.03.2019 17:26 11,2 C 10,6 C 10,0 C 78 % 1002,9 hPa 0,0 l/m 0 min 0 min 42 W/m 29,0 km/h (5 Bft) 93,62 %
16.03.2019 17:28 11,2 C 10,6 C 10,0 C 78 % 1002,8 hPa 0,0 l/m 0 min 0 min 34 W/m 19,3 km/h (3 Bft) 100,00 %
16.03.2019 17:30 11,2 C 10,6 C 10,0 C 78 % 1003,0 hPa 0,0 l/m 0 min 0 min 26 W/m 22,5 km/h (4 Bft) 97,87 %
16.03.2019 17:32 11,2 C 10,6 C 10,0 C 78 % 1003,0 hPa 0,0 l/m 0 min 0 min 31 W/m 25,7 km/h (4 Bft) 97,92 %
16.03.2019 17:34 11,2 C 10,6 C 10,0 C 78 % 1002,9 hPa 0,0 l/m 0 min 0 min 34 W/m 41,8 km/h (6 Bft) 95,74 %
16.03.2019 17:36 11,2 C 10,6 C 10,0 C 78 % 1002,9 hPa 0,0 l/m 0 min 0 min 32 W/m 29,0 km/h (5 Bft) 97,87 %
16.03.2019 17:38 11,2 C 10,6 C 10,0 C 78 % 1002,9 hPa 0,0 l/m 0 min 0 min 32 W/m 25,7 km/h (4 Bft) 100,00 %
16.03.2019 17:40 11,2 C 10,6 C 10,0 C 78 % 1002,8 hPa 0,0 l/m 0 min 0 min 30 W/m 29,0 km/h (5 Bft) 100,00 %
16.03.2019 17:42 11,2 C 10,6 C 10,0 C 78 % 1002,8 hPa 0,0 l/m 0 min 0 min 21 W/m 25,7 km/h (4 Bft) 100,00 %
16.03.2019 17:44 11,2 C 10,6 C 10,0 C 78 % 1002,8 hPa 0,0 l/m 0 min 0 min 19 W/m 29,0 km/h (5 Bft) 97,87 %
16.03.2019 17:46 11,2 C 10,6 C 10,0 C 78 % 1002,8 hPa 0,0 l/m 0 min 0 min 22 W/m 41,8 km/h (6 Bft) 97,87 %
16.03.2019 17:48 11,2 C 10,6 C 10,0 C 78 % 1002,8 hPa 0,0 l/m 0 min 0 min 23 W/m 29,0 km/h (5 Bft) 100,00 %
16.03.2019 17:50 11,2 C 10,6 C 10,0 C 78 % 1002,9 hPa 0,0 l/m 0 min 0 min 20 W/m 32,2 km/h (5 Bft) 100,00 %
16.03.2019 17:52 11,2 C 10,6 C 10,0 C 78 % 1002,7 hPa 0,0 l/m 0 min 0 min 19 W/m 22,5 km/h (4 Bft) 100,00 %
16.03.2019 17:54 11,2 C 10,6 C 10,0 C 78 % 1002,8 hPa 0,0 l/m 0 min 0 min 18 W/m 22,5 km/h (4 Bft) 100,00 %
16.03.2019 17:56 11,2 C 10,6 C 10,0 C 78 % 1002,8 hPa 0,0 l/m 0 min 0 min 17 W/m 22,5 km/h (4 Bft) 100,00 %
16.03.2019 17:58 11,2 C 10,6 C 10,0 C 78 % 1002,9 hPa 0,0 l/m 0 min 0 min 16 W/m 25,7 km/h (4 Bft) 100,00 %
16.03.2019 18:00 11,2 C 10,6 C 10,0 C 78 % 1002,8 hPa 0,0 l/m 0 min 0 min 18 W/m 29,0 km/h (5 Bft) 100,00 %
16.03.2019 18:02 11,2 C 10,6 C 10,0 C 78 % 1002,8 hPa 0,0 l/m 0 min 0 min 17 W/m 54,7 km/h (7 Bft) 100,00 %
16.03.2019 18:04 11,2 C 10,6 C 10,0 C 78 % 1002,8 hPa 0,0 l/m 0 min 0 min 14 W/m 29,0 km/h (5 Bft) 100,00 %
16.03.2019 18:08 11,2 C 10,6 C 10,0 C 77 % 1002,8 hPa 0,0 l/m 0 min 0 min 13 W/m 35,4 km/h (5 Bft) 100,00 %
16.03.2019 18:10 11,2 C 10,6 C 10,0 C 77 % 1002,8 hPa 0,0 l/m 0 min 0 min 11 W/m 29,0 km/h (5 Bft) 100,00 %
16.03.2019 18:12 11,2 C 10,6 C 10,0 C 77 % 1002,7 hPa 0,0 l/m 0 min 0 min 11 W/m 29,0 km/h (5 Bft) 97,87 %
16.03.2019 18:14 11,1 C 10,6 C 10,0 C 77 % 1002,7 hPa 0,0 l/m 0 min 0 min 11 W/m 35,4 km/h (5 Bft) 100,00 %
16.03.2019 18:16 11,1 C 10,6 C 10,0 C 77 % 1002,7 hPa 0,0 l/m 0 min 0 min 11 W/m 32,2 km/h (5 Bft) 100,00 %
16.03.2019 18:18 11,1 C 10,6 C 10,0 C 77 % 1002,7 hPa 0,0 l/m 0 min 0 min 11 W/m 16,1 km/h (3 Bft) 97,87 %
16.03.2019 18:20 11,1 C 10,6 C 10,0 C 77 % 1002,7 hPa 0,0 l/m 0 min 0 min 10 W/m 35,4 km/h (5 Bft) 100,00 %
16.03.2019 18:22 11,1 C 10,6 C 10,0 C 77 % 1002,8 hPa 0,0 l/m 0 min 0 min 9 W/m 22,5 km/h (4 Bft) 100,00 %
16.03.2019 18:24 11,1 C 10,6 C 10,0 C 77 % 1002,7 hPa 0,0 l/m 0 min 0 min 8 W/m 22,5 km/h (4 Bft) 100,00 %
16.03.2019 18:26 11,1 C 10,6 C 10,0 C 77 % 1002,7 hPa 0,0 l/m 0 min 0 min 7 W/m 29,0 km/h (5 Bft) 93,48 %
16.03.2019 18:28 11,1 C 10,6 C 10,0 C 77 % 1002,7 hPa 0,0 l/m 0 min 0 min 7 W/m 25,7 km/h (4 Bft) 97,87 %
16.03.2019 18:30 11,1 C 10,6 C 10,0 C 77 % 1002,7 hPa 0,0 l/m 0 min 0 min 6 W/m 25,7 km/h (4 Bft) 100,00 %
16.03.2019 18:32 11,1 C 10,6 C 10,0 C 77 % 1002,6 hPa 0,0 l/m 0 min 0 min 5 W/m 29,0 km/h (5 Bft) 100,00 %
16.03.2019 18:34 11,1 C 10,6 C 10,0 C 77 % 1002,5 hPa 0,0 l/m 0 min 0 min 2 W/m 35,4 km/h (5 Bft) 100,00 %
16.03.2019 18:36 11,1 C 10,6 C 10,0 C 77 % 1002,5 hPa 0,0 l/m 0 min 0 min 0 W/m 19,3 km/h (3 Bft) 97,87 %
16.03.2019 18:38 11,1 C 10,6 C 10,0 C 77 % 1002,6 hPa 0,0 l/m 0 min 0 min 0 W/m 16,1 km/h (3 Bft) 97,83 %
16.03.2019 18:40 11,1 C 10,6 C 10,0 C 78 % 1002,5 hPa 0,0 l/m 0 min 0 min 0 W/m 16,1 km/h (3 Bft) 100,00 %
16.03.2019 18:42 11,1 C 10,6 C 10,0 C 78 % 1002,5 hPa 0,0 l/m 0 min 0 min 0 W/m 22,5 km/h (4 Bft) 100,00 %
16.03.2019 18:44 11,1 C 10,6 C 10,0 C 78 % 1002,4 hPa 0,0 l/m 0 min 0 min 0 W/m 16,1 km/h (3 Bft) 97,87 %
16.03.2019 18:46 11,1 C 10,6 C 10,0 C 78 % 1002,4 hPa 0,0 l/m 0 min 0 min 0 W/m 25,7 km/h (4 Bft) 97,87 %
16.03.2019 18:48 11,0 C 10,6 C 10,0 C 78 % 1002,3 hPa 0,0 l/m 0 min 0 min 0 W/m 19,3 km/h (3 Bft) 97,87 %
16.03.2019 18:50 11,0 C 10,6 C 10,0 C 78 % 1002,3 hPa 0,0 l/m 0 min 0 min 0 W/m 32,2 km/h (5 Bft) 97,83 %
16.03.2019 18:52 11,0 C 10,6 C 10,0 C 78 % 1002,3 hPa 0,0 l/m 0 min 0 min 0 W/m 25,7 km/h (4 Bft) 97,87 %
16.03.2019 18:54 11,0 C 10,6 C 10,0 C 78 % 1002,3 hPa 0,0 l/m 0 min 0 min 0 W/m 25,7 km/h (4 Bft) 97,87 %
16.03.2019 18:56 11,0 C 10,6 C 10,0 C 78 % 1002,2 hPa 0,0 l/m 0 min 0 min 0 W/m 22,5 km/h (4 Bft) 97,87 %
16.03.2019 18:58 11,0 C 10,6 C 10,0 C 78 % 1002,3 hPa 0,0 l/m 0 min 0 min 0 W/m 25,7 km/h (4 Bft) 97,87 %
16.03.2019 19:00 11,0 C 10,6 C 10,0 C 78 % 1002,3 hPa 0,0 l/m 0 min 0 min 0 W/m 25,7 km/h (4 Bft) 97,87 %
16.03.2019 19:02 11,0 C 10,6 C 10,0 C 78 % 1002,2 hPa 0,0 l/m 0 min 0 min 0 W/m 25,7 km/h (4 Bft) 97,83 %
16.03.2019 19:04 11,0 C 10,6 C 10,0 C 78 % 1002,2 hPa 0,0 l/m 0 min 0 min 0 W/m 19,3 km/h (3 Bft) 97,87 %
16.03.2019 19:06 10,9 C 10,6 C 10,0 C 78 % 1002,2 hPa 0,0 l/m 0 min 0 min 0 W/m 19,3 km/h (3 Bft) 100,00 %
16.03.2019 19:08 10,9 C 10,6 C 10,0 C 78 % 1002,2 hPa 0,0 l/m 0 min 0 min 0 W/m 29,0 km/h (5 Bft) 97,92 %
16.03.2019 19:10 10,9 C 10,6 C 10,0 C 77 % 1002,2 hPa 0,0 l/m 0 min 0 min 0 W/m 25,7 km/h (4 Bft) 95,74 %
16.03.2019 19:12 10,9 C 10,6 C 10,0 C 77 % 1002,2 hPa 0,0 l/m 0 min 0 min 0 W/m 25,7 km/h (4 Bft) 95,74 %
16.03.2019 19:14 10,9 C 10,6 C 10,0 C 78 % 1002,2 hPa 0,0 l/m 0 min 0 min 0 W/m 22,5 km/h (4 Bft) 97,83 %
16.03.2019 19:16 10,9 C 10,6 C 9,4 C 78 % 1002,1 hPa 0,0 l/m 0 min 0 min 0 W/m 22,5 km/h (4 Bft) 95,74 %
16.03.2019 19:18 10,9 C 10,0 C 9,4 C 78 % 1002,1 hPa 0,0 l/m 0 min 0 min 0 W/m 22,5 km/h (4 Bft) 97,87 %
16.03.2019 19:20 10,9 C 10,0 C 9,4 C 78 % 1002,1 hPa 0,0 l/m 0 min 0 min 0 W/m 22,5 km/h (4 Bft) 97,87 %
16.03.2019 19:22 10,9 C 10,0 C 9,4 C 78 % 1002,1 hPa 0,0 l/m 0 min 0 min 0 W/m 22,5 km/h (4 Bft) 95,74 %
16.03.2019 19:24 10,9 C 10,6 C 9,4 C 78 % 1002,2 hPa 0,0 l/m 0 min 0 min 0 W/m 35,4 km/h (5 Bft) 95,65 %
16.03.2019 19:26 10,9 C 10,6 C 10,0 C 78 % 1002,2 hPa 0,0 l/m 0 min 0 min 0 W/m 19,3 km/h (3 Bft) 95,74 %
16.03.2019 19:28 10,9 C 10,0 C 9,4 C 78 % 1002,2 hPa 0,0 l/m 0 min 0 min 0 W/m 16,1 km/h (3 Bft) 93,62 %
16.03.2019 19:30 10,9 C 10,0 C 9,4 C 78 % 1002,2 hPa 0,0 l/m 0 min 0 min 0 W/m 16,1 km/h (3 Bft) 93,62 %
16.03.2019 19:32 10,9 C 10,0 C 9,4 C 78 % 1002,1 hPa 0,0 l/m 0 min 0 min 0 W/m 29,0 km/h (5 Bft) 93,62 %
16.03.2019 19:34 10,9 C 10,6 C 10,0 C 78 % 1002,2 hPa 0,0 l/m 0 min 0 min 0 W/m 32,2 km/h (5 Bft) 95,74 %
16.03.2019 19:36 10,9 C 10,6 C 10,0 C 78 % 1002,1 hPa 0,0 l/m 0 min 0 min 0 W/m 29,0 km/h (5 Bft) 95,65 %
16.03.2019 19:38 10,9 C 10,0 C 9,4 C 78 % 1002,3 hPa 0,0 l/m 0 min 0 min 0 W/m 12,9 km/h (3 Bft) 97,87 %
16.03.2019 19:40 10,9 C 10,0 C 9,4 C 78 % 1002,1 hPa 0,0 l/m 0 min 0 min 0 W/m 16,1 km/h (3 Bft) 97,87 %
16.03.2019 19:42 10,9 C 10,6 C 10,0 C 78 % 1002,1 hPa 0,0 l/m 0 min 0 min 0 W/m 32,2 km/h (5 Bft) 97,87 %
16.03.2019 19:44 10,9 C 10,6 C 10,0 C 78 % 1002,1 hPa 0,0 l/m 0 min 0 min 0 W/m 25,7 km/h (4 Bft) 97,87 %
16.03.2019 19:46 10,9 C 10,0 C 9,4 C 78 % 1002,1 hPa 0,0 l/m 0 min 0 min 0 W/m 19,3 km/h (3 Bft) 97,87 %
16.03.2019 19:48 10,9 C 10,0 C 10,0 C 78 % 1002,1 hPa 0,0 l/m 0 min 0 min 0 W/m 19,3 km/h (3 Bft) 97,83 %
16.03.2019 19:50 10,9 C 10,0 C 9,4 C 78 % 1002,0 hPa 0,0 l/m 0 min 0 min 0 W/m 22,5 km/h (4 Bft) 97,87 %
16.03.2019 19:52 10,9 C 10,0 C 9,4 C 78 % 1002,0 hPa 0,0 l/m 0 min 0 min 0 W/m 25,7 km/h (4 Bft) 95,74 %
16.03.2019 19:54 10,9 C 10,0 C 9,4 C 78 % 1002,1 hPa 0,0 l/m 0 min 0 min 0 W/m 25,7 km/h (4 Bft) 95,74 %
16.03.2019 19:56 10,9 C 10,0 C 10,0 C 78 % 1002,0 hPa 0,0 l/m 0 min 0 min 0 W/m 25,7 km/h (4 Bft) 93,62 %
16.03.2019 19:58 10,8 C 10,0 C 9,4 C 78 % 1002,0 hPa 0,0 l/m 0 min 0 min 0 W/m 22,5 km/h (4 Bft) 95,74 %
16.03.2019 20:00 10,8 C 10,0 C 9,4 C 78 % 1002,0 hPa 0,0 l/m 0 min 0 min 0 W/m 25,7 km/h (4 Bft) 95,65 %
16.03.2019 20:02 10,8 C 10,0 C 9,4 C 78 % 1002,0 hPa 0,0 l/m 0 min 0 min 0 W/m 22,5 km/h (4 Bft) 93,62 %
16.03.2019 20:04 10,8 C 10,0 C 9,4 C 78 % 1002,0 hPa 0,0 l/m 0 min 0 min 0 W/m 16,1 km/h (3 Bft) 95,74 %
16.03.2019 20:06 10,8 C 10,0 C 9,4 C 78 % 1001,9 hPa 0,0 l/m 0 min 0 min 0 W/m 16,1 km/h (3 Bft) 95,74 %
16.03.2019 20:08 10,8 C 10,0 C 9,4 C 78 % 1001,9 hPa 0,0 l/m 0 min 0 min 0 W/m 19,3 km/h (3 Bft) 95,83 %
16.03.2019 20:10 10,8 C 10,0 C 9,4 C 78 % 1002,0 hPa 0,0 l/m 0 min 0 min 0 W/m 22,5 km/h (4 Bft) 97,87 %
16.03.2019 20:12 10,8 C 10,0 C 9,4 C 78 % 1001,9 hPa 0,0 l/m 0 min 0 min 0 W/m 19,3 km/h (3 Bft) 93,48 %
16.03.2019 20:14 10,8 C 10,0 C 9,4 C 78 % 1001,8 hPa 0,0 l/m 0 min 0 min 0 W/m 19,3 km/h (3 Bft) 97,87 %
16.03.2019 20:16 10,8 C 10,0 C 9,4 C 78 % 1001,9 hPa 0,0 l/m 0 min 0 min 0 W/m 29,0 km/h (5 Bft) 95,74 %
16.03.2019 20:18 10,8 C 10,0 C 9,4 C 78 % 1001,8 hPa 0,0 l/m 0 min 0 min 0 W/m 32,2 km/h (5 Bft) 97,87 %
16.03.2019 20:20 10,8 C 10,0 C 9,4 C 78 % 1001,8 hPa 0,0 l/m 0 min 0 min 0 W/m 22,5 km/h (4 Bft) 97,87 %
16.03.2019 20:22 10,8 C 10,0 C 9,4 C 78 % 1001,7 hPa 0,0 l/m 0 min 0 min 0 W/m 22,5 km/h (4 Bft) 95,65 %
16.03.2019 20:24 10,8 C 10,0 C 9,4 C 78 % 1001,8 hPa 0,0 l/m 0 min 0 min 0 W/m 19,3 km/h (3 Bft) 95,74 %
16.03.2019 20:26 10,8 C 10,0 C 9,4 C 77 % 1001,7 hPa 0,0 l/m 0 min 0 min 0 W/m 29,0 km/h (5 Bft) 97,87 %
16.03.2019 20:28 10,8 C 10,0 C 9,4 C 77 % 1001,7 hPa 0,0 l/m 0 min 0 min 0 W/m 29,0 km/h (5 Bft) 93,62 %
16.03.2019 20:30 10,8 C 10,0 C 9,4 C 78 % 1001,6 hPa 0,0 l/m 0 min 0 min 0 W/m 32,2 km/h (5 Bft) 97,87 %
16.03.2019 20:32 10,8 C 10,0 C 10,0 C 77 % 1001,7 hPa 0,0 l/m 0 min 0 min 0 W/m 32,2 km/h (5 Bft) 97,87 %
16.03.2019 20:34 10,8 C 10,0 C 9,4 C 77 % 1001,6 hPa 0,0 l/m 0 min 0 min 0 W/m 32,2 km/h (5 Bft) 97,87 %
16.03.2019 20:36 10,8 C 10,0 C 9,4 C 78 % 1001,6 hPa 0,0 l/m 0 min 0 min 0 W/m 16,1 km/h (3 Bft) 95,65 %
16.03.2019 20:38 10,8 C 10,0 C 9,4 C 77 % 1001,6 hPa 0,0 l/m 0 min 0 min 0 W/m 22,5 km/h (4 Bft) 97,92 %
16.03.2019 20:40 10,8 C 10,0 C 9,4 C 77 % 1001,6 hPa 0,0 l/m 0 min 0 min 0 W/m 16,1 km/h (3 Bft) 95,74 %
16.03.2019 20:42 10,8 C 10,0 C 9,4 C 77 % 1001,6 hPa 0,0 l/m 0 min 0 min 0 W/m 12,9 km/h (3 Bft) 97,87 %
16.03.2019 20:44 10,8 C 10,0 C 9,4 C 78 % 1001,6 hPa 0,0 l/m 0 min 0 min 0 W/m 25,7 km/h (4 Bft) 97,87 %
16.03.2019 20:46 10,8 C 10,0 C 9,4 C 78 % 1001,5 hPa 0,0 l/m 0 min 0 min 0 W/m 12,9 km/h (3 Bft) 97,83 %
16.03.2019 20:48 10,8 C 10,0 C 9,4 C 78 % 1001,5 hPa 0,0 l/m 0 min 0 min 0 W/m 22,5 km/h (4 Bft) 95,74 %
16.03.2019 20:50 10,8 C 10,0 C 9,4 C 78 % 1001,5 hPa 0,0 l/m 0 min 0 min 0 W/m 22,5 km/h (4 Bft) 97,87 %
16.03.2019 20:52 10,8 C 10,0 C 9,4 C 78 % 1001,4 hPa 0,0 l/m 0 min 0 min 0 W/m 29,0 km/h (5 Bft) 100,00 %
16.03.2019 20:54 10,8 C 10,0 C 9,4 C 78 % 1001,4 hPa 0,0 l/m 0 min 0 min 0 W/m 19,3 km/h (3 Bft) 100,00 %
16.03.2019 20:56 10,8 C 10,0 C 9,4 C 78 % 1001,4 hPa 0,0 l/m 0 min 0 min 0 W/m 29,0 km/h (5 Bft) 100,00 %
16.03.2019 20:58 10,8 C 10,0 C 9,4 C 78 % 1001,3 hPa 0,0 l/m 0 min 0 min 0 W/m 41,8 km/h (6 Bft) 97,83 %
16.03.2019 21:00 10,8 C 10,0 C 9,4 C 78 % 1001,4 hPa 0,0 l/m 0 min 0 min 0 W/m 32,2 km/h (5 Bft) 97,87 %
16.03.2019 21:02 10,8 C 10,0 C 9,4 C 78 % 1001,3 hPa 0,0 l/m 0 min 0 min 0 W/m 25,7 km/h (4 Bft) 100,00 %
16.03.2019 21:04 10,8 C 10,0 C 9,4 C 78 % 1001,2 hPa 0,0 l/m 0 min 0 min 0 W/m 29,0 km/h (5 Bft) 100,00 %
16.03.2019 21:06 10,8 C 10,0 C 9,4 C 78 % 1001,3 hPa 0,0 l/m 0 min 0 min 0 W/m 25,7 km/h (4 Bft) 97,87 %
16.03.2019 21:08 10,8 C 10,0 C 9,4 C 78 % 1001,3 hPa 0,0 l/m 0 min 0 min 0 W/m 25,7 km/h (4 Bft) 100,00 %
16.03.2019 21:10 10,8 C 10,0 C 9,4 C 78 % 1001,2 hPa 0,0 l/m 0 min 0 min 0 W/m 22,5 km/h (4 Bft) 97,83 %
16.03.2019 21:12 10,8 C 10,0 C 9,4 C 78 % 1001,1 hPa 0,0 l/m 0 min 0 min 0 W/m 22,5 km/h (4 Bft) 100,00 %
16.03.2019 21:14 10,8 C 10,0 C 9,4 C 78 % 1001,2 hPa 0,0 l/m 0 min 0 min 0 W/m 45,1 km/h (6 Bft) 100,00 %
16.03.2019 21:16 10,8 C 10,0 C 9,4 C 78 % 1001,1 hPa 0,0 l/m 0 min 0 min 0 W/m 38,6 km/h (5 Bft) 100,00 %
16.03.2019 21:18 10,8 C 10,0 C 9,4 C 78 % 1001,0 hPa 0,0 l/m 0 min 0 min 0 W/m 19,3 km/h (3 Bft) 100,00 %
16.03.2019 21:20 10,8 C 10,0 C 9,4 C 79 % 1000,9 hPa 0,0 l/m 0 min 0 min 0 W/m 32,2 km/h (5 Bft) 100,00 %
16.03.2019 21:22 10,8 C 10,0 C 9,4 C 79 % 1001,0 hPa 0,0 l/m 0 min 0 min 0 W/m 25,7 km/h (4 Bft) 100,00 %
16.03.2019 21:24 10,7 C 10,0 C 9,4 C 79 % 1000,9 hPa 0,0 l/m 0 min 0 min 0 W/m 35,4 km/h (5 Bft) 100,00 %
16.03.2019 21:26 10,8 C 10,0 C 9,4 C 79 % 1000,8 hPa 0,0 l/m 0 min 0 min 0 W/m 32,2 km/h (5 Bft) 100,00 %
16.03.2019 21:28 10,7 C 10,0 C 9,4 C 79 % 1000,8 hPa 0,0 l/m 0 min 0 min 0 W/m 32,2 km/h (5 Bft) 100,00 %
16.03.2019 21:30 10,7 C 10,0 C 9,4 C 79 % 1000,7 hPa 0,0 l/m 0 min 0 min 0 W/m 48,3 km/h (6 Bft) 97,87 %
16.03.2019 21:32 10,7 C 10,0 C 9,4 C 79 % 1000,7 hPa 0,0 l/m 0 min 0 min 0 W/m 35,4 km/h (5 Bft) 97,87 %
16.03.2019 21:34 10,7 C 10,0 C 9,4 C 79 % 1000,7 hPa 0,0 l/m 0 min 0 min 0 W/m 29,0 km/h (5 Bft) 100,00 %
16.03.2019 21:36 10,7 C 10,0 C 9,4 C 79 % 1000,8 hPa 0,0 l/m 0 min 0 min 0 W/m 38,6 km/h (5 Bft) 97,87 %
16.03.2019 21:38 10,7 C 10,0 C 9,4 C 79 % 1000,8 hPa 0,0 l/m 0 min 0 min 0 W/m 22,5 km/h (4 Bft) 97,92 %
16.03.2019 21:40 10,7 C 10,0 C 9,4 C 79 % 1000,6 hPa 0,0 l/m 0 min 0 min 0 W/m 25,7 km/h (4 Bft) 97,87 %
16.03.2019 21:42 10,7 C 10,0 C 9,4 C 79 % 1000,7 hPa 0,0 l/m 0 min 0 min 0 W/m 38,6 km/h (5 Bft) 97,87 %
16.03.2019 21:44 10,7 C 10,0 C 9,4 C 79 % 1000,6 hPa 0,0 l/m 0 min 0 min 0 W/m 29,0 km/h (5 Bft) 100,00 %
16.03.2019 21:46 10,7 C 10,0 C 9,4 C 79 % 1000,6 hPa 0,0 l/m 0 min 0 min 0 W/m 25,7 km/h (4 Bft) 100,00 %
16.03.2019 21:48 10,7 C 10,0 C 9,4 C 79 % 1000,5 hPa 0,0 l/m 0 min 0 min 0 W/m 41,8 km/h (6 Bft) 97,87 %
16.03.2019 21:50 10,7 C 10,0 C 9,4 C 79 % 1000,5 hPa 0,0 l/m 0 min 0 min 0 W/m 45,1 km/h (6 Bft) 95,74 %
16.03.2019 21:52 10,7 C 10,0 C 9,4 C 79 % 1000,6 hPa 0,0 l/m 0 min 0 min 0 W/m 35,4 km/h (5 Bft) 97,87 %
16.03.2019 21:54 10,7 C 10,0 C 9,4 C 79 % 1000,5 hPa 0,0 l/m 0 min 0 min 0 W/m 29,0 km/h (5 Bft) 97,87 %
16.03.2019 21:56 10,7 C 10,0 C 9,4 C 79 % 1000,4 hPa 0,0 l/m 0 min 0 min 0 W/m 29,0 km/h (5 Bft) 97,83 %
16.03.2019 21:58 10,7 C 10,0 C 9,4 C 79 % 1000,4 hPa 0,0 l/m 0 min 0 min 0 W/m 29,0 km/h (5 Bft) 95,74 %
16.03.2019 22:00 10,7 C 10,0 C 9,4 C 79 % 1000,4 hPa 0,0 l/m 0 min 0 min 0 W/m 25,7 km/h (4 Bft) 95,74 %
16.03.2019 22:02 10,7 C 10,0 C 9,4 C 79 % 1000,4 hPa 0,0 l/m 0 min 0 min 0 W/m 41,8 km/h (6 Bft) 93,62 %
16.03.2019 22:04 10,7 C 10,0 C 9,4 C 79 % 1000,4 hPa 0,0 l/m 0 min 0 min 0 W/m 22,5 km/h (4 Bft) 95,74 %
16.03.2019 22:06 10,7 C 10,0 C 9,4 C 79 % 1000,4 hPa 0,0 l/m 0 min 0 min 0 W/m 32,2 km/h (5 Bft) 93,62 %
16.03.2019 22:08 10,7 C 10,0 C 9,4 C 79 % 1000,4 hPa 0,0 l/m 0 min 0 min 0 W/m 32,2 km/h (5 Bft) 97,83 %
16.03.2019 22:10 10,8 C 10,0 C 9,4 C 79 % 1000,3 hPa 0,0 l/m 0 min 0 min 0 W/m 25,7 km/h (4 Bft) 95,74 %
16.03.2019 22:12 10,7 C 10,0 C 9,4 C 79 % 1000,3 hPa 0,0 l/m 0 min 0 min 0 W/m 19,3 km/h (3 Bft) 95,74 %
16.03.2019 22:14 10,7 C 10,0 C 9,4 C 79 % 1000,2 hPa 0,0 l/m 0 min 0 min 0 W/m 19,3 km/h (3 Bft) 95,74 %
16.03.2019 22:16 10,8 C 10,0 C 9,4 C 79 % 1000,2 hPa 0,0 l/m 0 min 0 min 0 W/m 25,7 km/h (4 Bft) 95,74 %
16.03.2019 22:18 10,8 C 10,0 C 9,4 C 79 % 1000,2 hPa 0,0 l/m 0 min 0 min 0 W/m 35,4 km/h (5 Bft) 95,74 %
16.03.2019 22:20 10,8 C 10,6 C 10,0 C 79 % 1000,3 hPa 0,0 l/m 0 min 0 min 0 W/m 38,6 km/h (5 Bft) 93,48 %
16.03.2019 22:22 10,8 C 10,6 C 10,0 C 79 % 1000,2 hPa 0,0 l/m 0 min 0 min 0 W/m 25,7 km/h (4 Bft) 95,74 %
16.03.2019 22:24 10,8 C 10,6 C 10,0 C 79 % 1000,1 hPa 0,0 l/m 0 min 0 min 0 W/m 41,8 km/h (6 Bft) 95,74 %
16.03.2019 22:26 10,8 C 10,6 C 10,0 C 79 % 1000,1 hPa 0,0 l/m 0 min 0 min 0 W/m 25,7 km/h (4 Bft) 95,74 %
16.03.2019 22:28 10,8 C 10,6 C 10,0 C 79 % 1000,1 hPa 0,0 l/m 0 min 0 min 0 W/m 32,2 km/h (5 Bft) 93,62 %
16.03.2019 22:30 10,9 C 10,6 C 10,0 C 79 % 1000,1 hPa 0,0 l/m 0 min 0 min 0 W/m 41,8 km/h (6 Bft) 95,74 %
16.03.2019 22:32 10,9 C 10,6 C 10,0 C 79 % 1000,0 hPa 0,0 l/m 0 min 0 min 0 W/m 22,5 km/h (4 Bft) 95,65 %
16.03.2019 22:34 10,9 C 10,6 C 10,0 C 79 % 1000,1 hPa 0,0 l/m 0 min 0 min 0 W/m 45,1 km/h (6 Bft) 97,87 %
16.03.2019 22:36 10,9 C 10,6 C 10,0 C 79 % 999,9 hPa 0,0 l/m 0 min 0 min 0 W/m 32,2 km/h (5 Bft) 93,62 %
16.03.2019 22:38 10,9 C 10,6 C 10,0 C 79 % 1000,0 hPa 0,0 l/m 0 min 0 min 0 W/m 41,8 km/h (6 Bft) 97,92 %
16.03.2019 22:40 10,9 C 10,6 C 10,0 C 79 % 999,9 hPa 0,0 l/m 0 min 0 min 0 W/m 35,4 km/h (5 Bft) 100,00 %
16.03.2019 22:42 10,9 C 10,6 C 10,0 C 79 % 999,9 hPa 0,0 l/m 0 min 0 min 0 W/m 25,7 km/h (4 Bft) 95,74 %
16.03.2019 22:44 11,0 C 10,6 C 9,4 C 79 % 999,9 hPa 0,0 l/m 0 min 0 min 0 W/m 45,1 km/h (6 Bft) 100,00 %
16.03.2019 22:46 11,0 C 10,6 C 10,0 C 79 % 999,9 hPa 0,0 l/m 0 min 0 min 0 W/m 35,4 km/h (5 Bft) 100,00 %
16.03.2019 22:48 11,0 C 10,6 C 10,0 C 79 % 999,9 hPa 0,0 l/m 0 min 0 min 0 W/m 41,8 km/h (6 Bft) 97,87 %
16.03.2019 22:50 11,0 C 10,6 C 10,0 C 79 % 999,9 hPa 0,0 l/m 0 min 0 min 0 W/m 29,0 km/h (5 Bft) 100,00 %
16.03.2019 22:52 11,0 C 10,6 C 10,0 C 79 % 999,9 hPa 0,0 l/m 0 min 0 min 0 W/m 35,4 km/h (5 Bft) 100,00 %
16.03.2019 22:54 11,0 C 10,6 C 10,0 C 79 % 999,8 hPa 0,0 l/m 0 min 0 min 0 W/m 38,6 km/h (5 Bft) 100,00 %
16.03.2019 22:56 10,9 C 10,6 C 9,4 C 79 % 999,8 hPa 0,0 l/m 0 min 0 min 0 W/m 25,7 km/h (4 Bft) 100,00 %
16.03.2019 22:58 10,9 C 10,0 C 9,4 C 79 % 999,8 hPa 0,0 l/m 0 min 0 min 0 W/m 35,4 km/h (5 Bft) 97,87 %
16.03.2019 23:00 10,9 C 10,6 C 9,4 C 79 % 999,9 hPa 0,0 l/m 0 min 0 min 0 W/m 41,8 km/h (6 Bft) 100,00 %
16.03.2019 23:02 10,9 C 10,6 C 10,0 C 79 % 999,7 hPa 0,0 l/m 0 min 0 min 0 W/m 45,1 km/h (6 Bft) 100,00 %
16.03.2019 23:04 10,9 C 10,6 C 10,0 C 79 % 999,7 hPa 0,0 l/m 0 min 0 min 0 W/m 48,3 km/h (6 Bft) 97,87 %
16.03.2019 23:06 10,9 C 10,6 C 9,4 C 79 % 999,8 hPa 0,0 l/m 0 min 0 min 0 W/m 35,4 km/h (5 Bft) 100,00 %
16.03.2019 23:08 10,9 C 10,6 C 9,4 C 79 % 999,7 hPa 0,0 l/m 0 min 0 min 0 W/m 38,6 km/h (5 Bft) 100,00 %
16.03.2019 23:10 10,9 C 10,6 C 9,4 C 79 % 999,7 hPa 0,0 l/m 0 min 0 min 0 W/m 29,0 km/h (5 Bft) 100,00 %
16.03.2019 23:12 10,9 C 10,0 C 9,4 C 79 % 999,6 hPa 0,0 l/m 0 min 0 min 0 W/m 32,2 km/h (5 Bft) 97,87 %
16.03.2019 23:14 10,9 C 10,6 C 9,4 C 79 % 999,6 hPa 0,0 l/m 0 min 0 min 0 W/m 29,0 km/h (5 Bft) 100,00 %
16.03.2019 23:16 10,9 C 10,6 C 9,4 C 79 % 999,5 hPa 0,0 l/m 0 min 0 min 0 W/m 22,5 km/h (4 Bft) 100,00 %
16.03.2019 23:18 10,9 C 10,6 C 10,0 C 79 % 999,5 hPa 0,0 l/m 0 min 0 min 0 W/m 32,2 km/h (5 Bft) 100,00 %
16.03.2019 23:20 10,9 C 10,6 C 10,0 C 79 % 999,5 hPa 0,0 l/m 0 min 0 min 0 W/m 35,4 km/h (5 Bft) 95,65 %
16.03.2019 23:22 10,9 C 10,6 C 10,0 C 79 % 999,5 hPa 0,0 l/m 0 min 0 min 0 W/m 22,5 km/h (4 Bft) 97,87 %
16.03.2019 23:24 10,9 C 10,6 C 10,0 C 79 % 999,6 hPa 0,0 l/m 0 min 0 min 0 W/m 35,4 km/h (5 Bft) 97,87 %
16.03.2019 23:26 10,9 C 10,6 C 10,0 C 79 % 999,4 hPa 0,0 l/m 0 min 0 min 0 W/m 38,6 km/h (5 Bft) 95,74 %
16.03.2019 23:28 10,9 C 10,6 C 10,0 C 79 % 999,5 hPa 0,0 l/m 0 min 0 min 0 W/m 32,2 km/h (5 Bft) 97,87 %
16.03.2019 23:30 10,9 C 10,6 C 10,0 C 79 % 999,4 hPa 0,0 l/m 0 min 0 min 0 W/m 29,0 km/h (5 Bft) 97,87 %
16.03.2019 23:32 11,0 C 10,6 C 10,0 C 79 % 999,5 hPa 0,0 l/m 0 min 0 min 0 W/m 29,0 km/h (5 Bft) 97,83 %
16.03.2019 23:34 11,0 C 10,6 C 10,0 C 79 % 999,4 hPa 0,0 l/m 0 min 0 min 0 W/m 32,2 km/h (5 Bft) 97,87 %
16.03.2019 23:36 11,0 C 10,6 C 10,0 C 79 % 999,5 hPa 0,0 l/m 0 min 0 min 0 W/m 41,8 km/h (6 Bft) 98,31 %
16.03.2019 23:38 11,0 C 10,6 C 10,0 C 79 % 999,4 hPa 0,0 l/m 0 min 0 min 0 W/m 38,6 km/h (5 Bft) 97,14 %
16.03.2019 23:40 11,0 C 10,6 C 10,0 C 79 % 999,3 hPa 0,0 l/m 0 min 0 min 0 W/m 25,7 km/h (4 Bft) 97,87 %
16.03.2019 23:42 11,0 C 10,6 C 10,0 C 79 % 999,4 hPa 0,0 l/m 0 min 0 min 0 W/m 35,4 km/h (5 Bft) 97,83 %
16.03.2019 23:44 11,0 C 10,6 C 10,0 C 79 % 999,4 hPa 0,0 l/m 0 min 0 min 0 W/m 25,7 km/h (4 Bft) 97,87 %
16.03.2019 23:46 11,0 C 10,6 C 10,0 C 79 % 999,3 hPa 0,0 l/m 0 min 0 min 0 W/m 35,4 km/h (5 Bft) 97,87 %
16.03.2019 23:48 11,0 C 10,6 C 10,0 C 79 % 999,3 hPa 0,0 l/m 0 min 0 min 0 W/m 35,4 km/h (5 Bft) 97,87 %
16.03.2019 23:50 11,0 C 10,6 C 10,0 C 79 % 999,3 hPa 0,0 l/m 0 min 0 min 0 W/m 29,0 km/h (5 Bft) 97,87 %
16.03.2019 23:52 11,0 C 10,6 C 10,0 C 79 % 999,2 hPa 0,0 l/m 0 min 0 min 0 W/m 35,4 km/h (5 Bft) 97,87 %
16.03.2019 23:54 11,0 C 10,6 C 10,0 C 79 % 999,3 hPa 0,0 l/m 0 min 0 min 0 W/m 41,8 km/h (6 Bft) 97,83 %
16.03.2019 23:56 11,1 C 10,6 C 10,0 C 79 % 999,2 hPa 0,0 l/m 0 min 0 min 0 W/m 35,4 km/h (5 Bft) 97,87 %
16.03.2019 23:58 11,1 C 10,6 C 10,0 C 79 % 999,1 hPa 0,0 l/m 0 min 0 min 0 W/m 32,2 km/h (5 Bft) 97,87 %
_ Min-Zeit 07:22 03:18 03:06 16:34 23:58 - - - - 00:16 10:42
Minimum _ 7,1 C 6,1 C 5,6 C 77 % 999,1 hPa - - - - 0,0 km/h (0 Bft) 70,21 %
_ Max-Zeit 11:42 11:36 11:36 08:36 02:34 01:00 00:00 05:10 11:36 11:06 00:00
Maximum _ 11,3 C 11,7 C 11,1 C 99 % 1008,1 hPa 0,2 l/m 0 min 5 min 256 W/m 61,2 km/h
O-SO (7 Bft)
100,00 %
Durchschnitt _ 9,8 C 9,2 C 8,6 C 87 % 1005,0 hPa #4,4 l/m #0 min. #8:35 h 72 W/m 21,0 km/h (4 Bft) 96,91 %
© 2019 W. Hausmann